Provisional Data: Susquehanna River near Binghamton, NY


Please select a monitoring station.
Please select start date.
Please select start date.

Toggle Unit: C/F Toggle Unit: C/F
Sample Time Temperature (C) Temperature (F) Specific Conductivity (mS/cm) pH   Turbidity (NTU+) DO (mg/L)
8/1/2022 12:00:00 AM 6.1323 5.9321
8/1/2022 12:15:00 AM 6.1369 5.9416
8/1/2022 12:30:00 AM 6.1405 5.9408
8/1/2022 12:45:00 AM 6.1445 6.0072
8/1/2022 1:00:00 AM 6.1513 6.0144
8/1/2022 1:15:00 AM 6.1543 6.0934
8/1/2022 1:30:00 AM 6.1601 6.0734
8/1/2022 1:45:00 AM 6.1613 6.0558
8/1/2022 2:00:00 AM 6.1673 5.9945
8/1/2022 2:15:00 AM 6.1724 6.0104
8/1/2022 2:30:00 AM 6.1808 6.0325
8/1/2022 2:45:00 AM 6.1838 6.1
8/1/2022 3:00:00 AM 6.188 6.0053
8/1/2022 3:15:00 AM 6.194 6.0944
8/1/2022 3:30:00 AM 6.2 6.1147
8/1/2022 3:45:00 AM 6.2055 6.1385
8/1/2022 4:00:00 AM 6.2044 6.13
8/1/2022 4:15:00 AM 6.2046 6.1584
8/1/2022 4:30:00 AM 6.2076 6.1947
8/1/2022 4:45:00 AM 6.2051 6.2228
8/1/2022 5:00:00 AM 6.1977 6.1837
8/1/2022 5:15:00 AM 6.1953 6.1915
8/1/2022 5:30:00 AM 6.1945 6.2455
8/1/2022 5:45:00 AM 6.1964 6.3
8/1/2022 6:00:00 AM 6.158 6.2333
8/1/2022 6:15:00 AM 6.1768 6.1687
8/1/2022 6:30:00 AM 6.1739 6.1278
8/1/2022 6:45:00 AM 6.1676 6.0924
8/1/2022 7:00:00 AM 6.1611 6.0674
8/1/2022 7:15:00 AM 6.157 6.038
8/1/2022 7:30:00 AM 6.1473 6.033
8/1/2022 7:45:00 AM 6.1453 6.0559
8/1/2022 8:00:00 AM 6.1417 6.0297
8/1/2022 8:15:00 AM 6.1401 6.0206
8/1/2022 8:30:00 AM 6.1429 6.0242
8/1/2022 8:45:00 AM 6.1432 6.0999
8/1/2022 9:00:00 AM 6.1471 5.9665
8/1/2022 9:15:00 AM 6.1537 5.9884
8/1/2022 9:30:00 AM 6.1574 6.067
8/1/2022 9:45:00 AM 6.1638 6.0908
8/1/2022 10:00:00 AM 6.1723 6.0887
8/1/2022 10:15:00 AM 6.1713 6.0812
8/1/2022 10:30:00 AM 6.1635 6.0466
8/1/2022 10:45:00 AM 6.1629 6.0919
8/1/2022 11:00:00 AM 6.1762 6.0722
8/1/2022 11:15:00 AM 6.1857 6.0704
8/1/2022 11:30:00 AM 6.1989 6.0492
8/1/2022 11:45:00 AM 6.2076 6.1
8/1/2022 12:00:00 PM 6.2225 5.9495
8/1/2022 12:15:00 PM 6.2208 5.9663
8/1/2022 12:30:00 PM 6.2284 5.9773
8/1/2022 12:45:00 PM 6.2453 6.0902
8/1/2022 1:00:00 PM 6.2267 6.0709
8/1/2022 1:15:00 PM 6.2663 6.089
8/1/2022 1:30:00 PM 6.3141 6.1299
8/1/2022 1:45:00 PM 6.3387 6.1999
8/1/2022 2:00:00 PM 6.3027 6.1488
8/1/2022 2:15:00 PM 6.2503 6.1511
8/1/2022 2:30:00 PM 6.2098 6.1096
8/1/2022 2:45:00 PM 6.191 6.1536
8/1/2022 3:00:00 PM 6.189 6.1448
8/1/2022 3:15:00 PM 6.1804 6.1897
8/1/2022 3:30:00 PM 6.1784 6.175
8/1/2022 3:45:00 PM 6.2 6.187
8/1/2022 4:00:00 PM 6.2161 6.2328
8/1/2022 4:15:00 PM 6.2245 6.2494
8/1/2022 4:30:00 PM 6.2569 6.2572
8/1/2022 4:45:00 PM 6.2612 6.2935
8/1/2022 5:00:00 PM 6.2498 6.3121
8/1/2022 5:15:00 PM 6.2502 6.302
8/1/2022 5:30:00 PM 6.2464 6.3444
8/1/2022 5:45:00 PM 6.2454 6.4
8/1/2022 6:00:00 PM 6.2567 6.4936
8/1/2022 6:15:00 PM 6.2495 6.5419
8/1/2022 6:30:00 PM 6.2328 6.5925
8/1/2022 6:45:00 PM 6.2222 6.6387
8/1/2022 7:00:00 PM 6.2166 6.6114
8/1/2022 7:15:00 PM 6.202 6.5707
8/1/2022 7:30:00 PM 6.1847 6.6217
8/1/2022 7:45:00 PM 6.1733 6.5969
8/1/2022 8:00:00 PM 6.1592 6.6127
8/1/2022 8:15:00 PM 6.1437 6.6672
8/1/2022 8:30:00 PM 6.1286 6.7234
8/1/2022 8:45:00 PM 6.1208 6.8
8/1/2022 9:00:00 PM 6.1045 6.7697
8/1/2022 9:15:00 PM 6.098 6.843
8/1/2022 9:30:00 PM 6.0939 6.9679
8/1/2022 9:45:00 PM 6.0897 6.9584
8/1/2022 10:00:00 PM 6.0887 6.9757
8/1/2022 10:15:00 PM 6.0913 6.9959
8/1/2022 10:30:00 PM 6.0935 6.9828
8/1/2022 10:45:00 PM 6.0933 7.0283
8/1/2022 11:00:00 PM 6.0725 7.0698
8/1/2022 11:15:00 PM 6.0794 7.233
8/1/2022 11:30:00 PM 6.0916 7.2033
8/1/2022 11:45:00 PM 6.0984 7.3
8/2/2022 12:00:00 AM 6.1047 7.1792
8/2/2022 12:15:00 AM 6.1045 7.1407
8/2/2022 12:30:00 AM 6.1078 7.1374
8/2/2022 12:45:00 AM 6.1118 7.1593
8/2/2022 1:00:00 AM 6.1169 7.168
8/2/2022 1:15:00 AM 6.1195 7.2413
8/2/2022 1:30:00 AM 6.1176 7.3175
8/2/2022 1:45:00 AM 6.1198 7.3172
8/2/2022 2:00:00 AM 6.1255 7.2906
8/2/2022 2:15:00 AM 6.1272 7.2475
8/2/2022 2:30:00 AM 6.1313 7.2304
8/2/2022 2:45:00 AM 6.132 7.3
8/2/2022 3:00:00 AM 6.14 7.2034
8/2/2022 3:15:00 AM 6.1425 7.2567
8/2/2022 3:30:00 AM 6.1418 7.1943
8/2/2022 3:45:00 AM 6.1423 7.2405
8/2/2022 4:00:00 AM 6.1425 7.2788
8/2/2022 4:15:00 AM 6.1414 7.3562
8/2/2022 4:30:00 AM 6.1417 7.3685
8/2/2022 4:45:00 AM 6.1417 7.3476
8/2/2022 5:00:00 AM 6.1418 7.3657
8/2/2022 5:15:00 AM 6.1422 7.3553
8/2/2022 5:30:00 AM 6.1399 7.3761
8/2/2022 5:45:00 AM 6.1362 7.4
8/2/2022 6:00:00 AM 6.1263 7.4506
8/2/2022 6:15:00 AM 6.1318 7.3418
8/2/2022 6:30:00 AM 6.1305 7.3221
8/2/2022 6:45:00 AM 6.1316 7.2569
8/2/2022 7:00:00 AM 6.1343 7.2159
8/2/2022 7:15:00 AM 6.1383 7.2261
8/2/2022 7:30:00 AM 6.1411 7.1763
8/2/2022 7:45:00 AM 6.1434 7.1446
8/2/2022 8:00:00 AM 6.1458 7.0924
8/2/2022 8:15:00 AM 6.1471 7.079
8/2/2022 8:30:00 AM 6.1537 7.0997
8/2/2022 8:45:00 AM 6.1544 7.2
8/2/2022 9:00:00 AM 6.1618 7.1418
8/2/2022 9:15:00 AM 6.1737 7.181
8/2/2022 9:30:00 AM 6.1834 7.1269
8/2/2022 9:45:00 AM 6.1822 7.1968
8/2/2022 10:00:00 AM 6.1815 7.1649
8/2/2022 10:15:00 AM 6.1887 7.1978
8/2/2022 10:30:00 AM 6.1982 7.155
8/2/2022 10:45:00 AM 6.1906 7.1293
8/2/2022 11:00:00 AM 6.1888 7.158
8/2/2022 11:15:00 AM 6.1858 7.1509
8/2/2022 11:30:00 AM 6.1845 7.1346
8/2/2022 11:45:00 AM 6.1908 7.2
8/2/2022 12:00:00 PM 6.1904 7.0966
8/2/2022 12:15:00 PM 6.2088 7.0937
8/2/2022 12:30:00 PM 6.2332 7.0659
8/2/2022 12:45:00 PM 6.2275 7.1013
8/2/2022 1:00:00 PM 6.2103 7.41
8/2/2022 1:15:00 PM 6.2029 7.4782
8/2/2022 1:30:00 PM 6.1996 7.5622
8/2/2022 1:45:00 PM 6.1801 7.5508
8/2/2022 2:00:00 PM 6.1765 7.5649
8/2/2022 2:15:00 PM 6.1687 7.492
8/2/2022 2:30:00 PM 6.1601 7.4138
8/2/2022 2:45:00 PM 6.1652 7.3787
8/2/2022 3:00:00 PM 6.1692 7.3299
8/2/2022 3:15:00 PM 6.1907 7.3177
8/2/2022 3:30:00 PM 6.1984 7.2685
8/2/2022 3:45:00 PM 6.2087 7.2499
8/2/2022 4:00:00 PM 6.2243 7.2113
8/2/2022 4:15:00 PM 6.2556 7.1878
8/2/2022 4:30:00 PM 6.237 7.2137
8/2/2022 4:45:00 PM 6.2643 7.2707
8/2/2022 5:00:00 PM 6.2901 7.2833
8/2/2022 5:15:00 PM 6.269 7.288
8/2/2022 5:30:00 PM 6.274 7.2657
8/2/2022 5:45:00 PM 6.2846 7.2999
8/2/2022 6:00:00 PM 6.3012 7.1961
8/2/2022 6:15:00 PM 6.2937 7.2598
8/2/2022 6:30:00 PM 6.2851 7.2427
8/2/2022 6:45:00 PM 6.2845 7.2458
8/2/2022 7:00:00 PM 6.2862 7.2397
8/2/2022 7:15:00 PM 6.2842 7.2385
8/2/2022 7:30:00 PM 6.273 7.2518
8/2/2022 7:45:00 PM 6.2633 7.2587
8/2/2022 8:00:00 PM 6.2492 7.3323
8/2/2022 8:15:00 PM 6.2373 7.3091
8/2/2022 8:30:00 PM 6.2226 7.2659
8/2/2022 8:45:00 PM 6.216 7.3
8/2/2022 9:00:00 PM 6.2082 7.2896
8/2/2022 9:15:00 PM 6.2023 7.2974
8/2/2022 9:30:00 PM 6.1969 7.3045
8/2/2022 9:45:00 PM 6.1978 7.2746
8/2/2022 10:00:00 PM 6.1953 7.2668
8/2/2022 10:15:00 PM 6.1917 7.2753
8/2/2022 10:30:00 PM 6.1847 7.3502
8/2/2022 10:45:00 PM 6.1811 7.3366
8/2/2022 11:00:00 PM 6.1802 7.3186
8/2/2022 11:15:00 PM 6.1433 7.5199
8/2/2022 11:30:00 PM 6.1729 7.5353
8/2/2022 11:45:00 PM 6.1684 7.6
8/3/2022 12:00:00 AM 6.1679 7.594
8/3/2022 12:15:00 AM 6.1618 7.6694
8/3/2022 12:30:00 AM 6.1612 7.6691
8/3/2022 12:45:00 AM 6.1592 7.8577
8/3/2022 1:00:00 AM 6.1566 7.8867
8/3/2022 1:15:00 AM 6.1562 7.9219
8/3/2022 1:30:00 AM 6.1567 7.9928
8/3/2022 1:45:00 AM 6.1584 7.9313
8/3/2022 2:00:00 AM 6.1571 7.9462
8/3/2022 2:15:00 AM 6.1555 8.088
8/3/2022 2:30:00 AM 6.1522 8.1854
8/3/2022 2:45:00 AM 6.1488 8.4
8/3/2022 3:00:00 AM 6.1512 8.1834
8/3/2022 3:15:00 AM 6.1508 8.187
8/3/2022 3:30:00 AM 6.1502 8.2506
8/3/2022 3:45:00 AM 6.1467 8.2476
8/3/2022 4:00:00 AM 6.1468 8.2745
8/3/2022 4:15:00 AM 6.1473 8.3013
8/3/2022 4:30:00 AM 6.1464 8.5231
8/3/2022 4:45:00 AM 6.1466 8.5883
8/3/2022 5:00:00 AM 6.1434 8.5807
8/3/2022 5:15:00 AM 6.1414 8.6403
8/3/2022 5:30:00 AM 6.1395 8.685
8/3/2022 5:45:00 AM 6.1362 8.8
8/3/2022 6:00:00 AM 6.1194 8.6668
8/3/2022 6:15:00 AM 6.1355 8.6394
8/3/2022 6:30:00 AM 6.1337 8.6366
8/3/2022 6:45:00 AM 6.1346 8.5935
8/3/2022 7:00:00 AM 6.1358 8.5105
8/3/2022 7:15:00 AM 6.1401 8.5333
8/3/2022 7:30:00 AM 6.1442 8.4931
8/3/2022 7:45:00 AM 6.1521 8.4522
8/3/2022 8:00:00 AM 6.1582 8.4144
8/3/2022 8:15:00 AM 6.1673 8.4445
8/3/2022 8:30:00 AM 6.1769 8.4005
8/3/2022 8:45:00 AM 6.1796 8.4999
8/3/2022 9:00:00 AM 6.1946 8.3073
8/3/2022 9:15:00 AM 6.2038 8.3378
8/3/2022 9:30:00 AM 6.2131 8.2491
8/3/2022 9:45:00 AM 6.2155 8.225
8/3/2022 10:00:00 AM 6.2292 8.2065
8/3/2022 10:15:00 AM 6.2474 8.1893
8/3/2022 10:30:00 AM 6.2561 8.169
8/3/2022 10:45:00 AM 6.2663 8.2542
8/3/2022 11:00:00 AM 6.2806 8.212
8/3/2022 11:15:00 AM 6.2862 8.2297
8/3/2022 11:30:00 AM 6.2904 8.2139
8/3/2022 11:45:00 AM 6.293 8.2999
8/3/2022 12:00:00 PM 6.3108 8.1283
8/3/2022 12:15:00 PM 6.3221 8.1364
8/3/2022 12:30:00 PM 6.3352 8.0762
8/3/2022 12:45:00 PM 6.3379 8.0737
8/3/2022 1:00:00 PM 6.3368 8.0911
8/3/2022 1:15:00 PM 6.3475 8.0514
8/3/2022 1:30:00 PM 6.3476 7.983
8/3/2022 1:45:00 PM 6.3396 8.0148
8/3/2022 2:00:00 PM 6.345 8.0276
8/3/2022 2:15:00 PM 6.3603 8.0458
8/3/2022 2:30:00 PM 6.3807 7.9508
8/3/2022 2:45:00 PM 6.384 7.9962
8/3/2022 3:00:00 PM 6.3842 7.9502
8/3/2022 3:15:00 PM 6.3804 7.995
8/3/2022 3:30:00 PM 6.3864 7.9972
8/3/2022 3:45:00 PM 6.3769 7.9925
8/3/2022 4:00:00 PM 6.3752 7.9578
8/3/2022 4:15:00 PM 6.3792 8.029
8/3/2022 4:30:00 PM 6.3915 8.0491
8/3/2022 4:45:00 PM 6.3996 8.0575
8/3/2022 5:00:00 PM 6.4054 8.0096
8/3/2022 5:15:00 PM 6.4171 8.0117
8/3/2022 5:30:00 PM 6.421 8.0367
8/3/2022 5:45:00 PM 6.4316 8.1
8/3/2022 6:00:00 PM 6.4331 8.0971
8/3/2022 6:15:00 PM 6.4271 8.0785
8/3/2022 6:30:00 PM 6.4299 8.0686
8/3/2022 6:45:00 PM 6.4395 8.1492
8/3/2022 7:00:00 PM 6.4375 8.1771
8/3/2022 7:15:00 PM 6.415 8.1975
8/3/2022 7:30:00 PM 6.3973 8.1608
8/3/2022 7:45:00 PM 6.3689 8.1865
8/3/2022 8:00:00 PM 6.3461 8.2216
8/3/2022 8:15:00 PM 6.3235 8.3011
8/3/2022 8:30:00 PM 6.302 8.3448
8/3/2022 8:45:00 PM 6.293 8.4
8/3/2022 9:00:00 PM 6.2584 8.6397
8/3/2022 9:15:00 PM 6.2381 8.5931
8/3/2022 9:30:00 PM 6.2178 8.5878
8/3/2022 9:45:00 PM 6.2049 8.6055
8/3/2022 10:00:00 PM 6.194 8.6548
8/3/2022 10:15:00 PM 6.1886 8.6866
8/3/2022 10:30:00 PM 6.1655 8.6861
8/3/2022 10:45:00 PM 6.1819 8.8447
8/3/2022 11:00:00 PM 6.178 9.0274
8/3/2022 11:15:00 PM 6.1755 8.9509
8/3/2022 11:30:00 PM 6.1731 8.9019
8/3/2022 11:45:00 PM 6.1698 9
8/4/2022 12:00:00 AM 6.1738 9.028
8/4/2022 12:15:00 AM 6.1772 9.0114
8/4/2022 12:30:00 AM 6.1806 8.9078
8/4/2022 12:45:00 AM 6.1798 8.9135
8/4/2022 1:00:00 AM 6.1801 8.8663
8/4/2022 1:15:00 AM 6.1744 8.8418
8/4/2022 1:30:00 AM 6.1729 8.8211
8/4/2022 1:45:00 AM 6.1619 8.8948
8/4/2022 2:00:00 AM 6.1532 8.986
8/4/2022 2:15:00 AM 6.1559 9.0369
8/4/2022 2:30:00 AM 6.1605 9.0328
8/4/2022 2:45:00 AM 6.1628 9.1
8/4/2022 3:00:00 AM 6.1621 9.1161
8/4/2022 3:15:00 AM 6.1604 9.1466
8/4/2022 3:30:00 AM 6.1581 9.1799
8/4/2022 3:45:00 AM 6.157 9.2372
8/4/2022 4:00:00 AM 6.1524 9.3817
8/4/2022 4:15:00 AM 6.1519 9.4957
8/4/2022 4:30:00 AM 6.1523 9.4581
8/4/2022 4:45:00 AM 6.1517 9.4664
8/4/2022 5:00:00 AM 6.1513 9.428
8/4/2022 5:15:00 AM 6.1512 9.4151
8/4/2022 5:30:00 AM 6.1524 9.4587
8/4/2022 5:45:00 AM 6.153 9.6
8/4/2022 6:00:00 AM 6.1421 9.4406
8/4/2022 6:15:00 AM 6.1448 9.3979
8/4/2022 6:30:00 AM 6.1395 9.3324
8/4/2022 6:45:00 AM 6.1326 9.2999
8/4/2022 7:00:00 AM 6.1297 9.3021
8/4/2022 7:15:00 AM 6.1403 9.2863
8/4/2022 7:30:00 AM 6.1524 9.32
8/4/2022 7:45:00 AM 6.1618 9.3454
8/4/2022 8:00:00 AM 6.1698 9.3251
8/4/2022 8:15:00 AM 6.1846 9.4039
8/4/2022 8:30:00 AM 6.197 9.3553
8/4/2022 8:45:00 AM 6.2034 9.4
8/4/2022 9:00:00 AM 6.2182 9.4057
8/4/2022 9:15:00 AM 6.2375 9.4203
8/4/2022 9:30:00 AM 6.2511 9.3349
8/4/2022 9:45:00 AM 6.2615 9.2706
8/4/2022 10:00:00 AM 6.2801 9.2551
8/4/2022 10:15:00 AM 6.2892 9.2473
8/4/2022 10:30:00 AM 6.2953 9.3137
8/4/2022 10:45:00 AM 6.3096 9.3736
8/4/2022 11:00:00 AM 6.3206 9.4078
8/4/2022 11:15:00 AM 6.3309 9.4077
8/4/2022 11:30:00 AM 6.3401 9.3869
8/4/2022 11:45:00 AM 6.3448 9.5
8/4/2022 12:00:00 PM 6.3586 9.3778
8/4/2022 12:15:00 PM 6.3547 9.3516
8/4/2022 12:30:00 PM 6.3553 9.3444
8/4/2022 12:45:00 PM 6.3482 9.3243
8/4/2022 1:00:00 PM 6.3411 9.4049
8/4/2022 1:15:00 PM 6.3439 9.3173
8/4/2022 1:30:00 PM 6.3391 9.2978
8/4/2022 1:45:00 PM 6.3307 9.3032
8/4/2022 2:00:00 PM 6.3197 9.3034
8/4/2022 2:15:00 PM 6.3093 9.3075
8/4/2022 2:30:00 PM 6.2928 9.4764
8/4/2022 2:45:00 PM 6.2776 9.5169
8/4/2022 3:00:00 PM 6.2644 9.4551
8/4/2022 3:15:00 PM 6.2512 9.386
8/4/2022 3:30:00 PM 6.2354 9.3612
8/4/2022 3:45:00 PM 6.2258 9.3876
8/4/2022 4:00:00 PM 6.2137 9.3466
8/4/2022 4:15:00 PM 6.1962 9.3743
8/4/2022 4:30:00 PM 6.181 9.3237
8/4/2022 4:45:00 PM 6.1715 9.3869
8/4/2022 5:00:00 PM 6.1548 9.4413
8/4/2022 5:15:00 PM 6.1359 9.3862
8/4/2022 5:30:00 PM 6.1271 9.3384
8/4/2022 5:45:00 PM 6.125 9.4
8/4/2022 6:00:00 PM 6.1179 9.4098
8/4/2022 6:15:00 PM 6.1166 9.385
8/4/2022 6:30:00 PM 6.1181 9.3573
8/4/2022 6:45:00 PM 6.1129 9.4273
8/4/2022 7:00:00 PM 6.1004 9.4584
8/4/2022 7:15:00 PM 6.0882 9.3765
8/4/2022 7:30:00 PM 6.0811 9.4234
8/4/2022 7:45:00 PM 6.0689 9.4325
8/4/2022 8:00:00 PM 6.0561 9.4348
8/4/2022 8:15:00 PM 6.0442 9.4196
8/4/2022 8:30:00 PM 6.03 9.4392
8/4/2022 8:45:00 PM 6.0228 9.5
8/4/2022 9:00:00 PM 6.0084 9.5453
8/4/2022 9:15:00 PM 6.0003 9.5874
8/4/2022 9:30:00 PM 5.9902 9.6115
8/4/2022 9:45:00 PM 5.9818 9.5988
8/4/2022 10:00:00 PM 5.9738 9.6302
8/4/2022 10:15:00 PM 5.9676 9.598
8/4/2022 10:30:00 PM 5.9603 9.6392
8/4/2022 10:45:00 PM 5.9564 9.5749
8/4/2022 11:00:00 PM 5.9539 9.6006
8/4/2022 11:15:00 PM 5.9502 9.5764
8/4/2022 11:30:00 PM 5.9488 9.6153
8/4/2022 11:45:00 PM 5.9486 9.7
8/5/2022 12:00:00 AM 5.9465 9.7671
8/5/2022 12:15:00 AM 5.944 9.698
8/5/2022 12:30:00 AM 5.9409 9.7148
8/5/2022 12:45:00 AM 5.9356 9.7433
8/5/2022 1:00:00 AM 5.9309 9.7317
8/5/2022 1:15:00 AM 5.9261 9.7172
8/5/2022 1:30:00 AM 5.9209 9.7373
8/5/2022 1:45:00 AM 5.9172 9.7548
8/5/2022 2:00:00 AM 5.917 9.7809
8/5/2022 2:15:00 AM 5.916 9.7451
8/5/2022 2:30:00 AM 5.9157 9.763
8/5/2022 2:45:00 AM 5.9206 9.8
8/5/2022 3:00:00 AM 5.9208 9.7571
8/5/2022 3:15:00 AM 5.9192 9.686
8/5/2022 3:30:00 AM 5.9202 9.6536
8/5/2022 3:45:00 AM 5.9225 9.7066
8/5/2022 4:00:00 AM 5.9233 9.7535
8/5/2022 4:15:00 AM 5.9246 9.711
8/5/2022 4:30:00 AM 5.9262 9.6557
8/5/2022 4:45:00 AM 5.9259 9.6489
8/5/2022 5:00:00 AM 5.9283 9.629
8/5/2022 5:15:00 AM 5.9279 9.6452
8/5/2022 5:30:00 AM 5.9247 9.6491
8/5/2022 5:45:00 AM 5.922 9.8
8/5/2022 6:00:00 AM 5.9246 9.7358
8/5/2022 6:15:00 AM 5.9225 9.68
8/5/2022 6:30:00 AM 5.9208 9.6239
8/5/2022 6:45:00 AM 5.9193 9.6061
8/5/2022 7:00:00 AM 5.9226 9.5188
8/5/2022 7:15:00 AM 5.9258 9.5588
8/5/2022 7:30:00 AM 5.9315 9.5146
8/5/2022 7:45:00 AM 5.9397 9.4867
8/5/2022 8:00:00 AM 5.9466 9.4526
8/5/2022 8:15:00 AM 5.9557 9.4912
8/5/2022 8:30:00 AM 5.9625 9.5401
8/5/2022 8:45:00 AM 5.9626 9.6
8/5/2022 9:00:00 AM 5.9772 9.5173
8/5/2022 9:15:00 AM 5.9843 9.499
8/5/2022 9:30:00 AM 5.991 9.553
8/5/2022 9:45:00 AM 6.0013 9.5003
8/5/2022 10:00:00 AM 6.0213 9.4404
8/5/2022 10:15:00 AM 6.0452 9.4419
8/5/2022 10:30:00 AM 6.069 9.425
8/5/2022 10:45:00 AM 6.0746 9.449
8/5/2022 11:00:00 AM 6.0786 9.4368
8/5/2022 11:15:00 AM 6.081 9.4018
8/5/2022 11:30:00 AM 6.0926 9.6357
8/5/2022 11:45:00 AM 6.0956 9.6
8/5/2022 12:00:00 PM 6.1125 9.4247
8/5/2022 12:15:00 PM 6.1252 9.3978
8/5/2022 12:30:00 PM 6.1357 9.3337
8/5/2022 12:45:00 PM 6.1544 9.2877
8/5/2022 1:00:00 PM 6.1698 9.3105
8/5/2022 1:15:00 PM 6.1739 9.3109
8/5/2022 1:30:00 PM 6.1882 9.244
8/5/2022 1:45:00 PM 6.1904 9.1965
8/5/2022 2:00:00 PM 6.1847 9.1673
8/5/2022 2:15:00 PM 6.2101 9.2206
8/5/2022 2:30:00 PM 6.2385 9.2492
8/5/2022 2:45:00 PM 6.2589 9.226
8/5/2022 3:00:00 PM 6.2531 9.2453
8/5/2022 3:15:00 PM 6.2733 9.2083
8/5/2022 3:30:00 PM 6.2853 9.2442
8/5/2022 3:45:00 PM 6.2627 9.1623
8/5/2022 4:00:00 PM 6.2591 9.1311
8/5/2022 4:15:00 PM 6.2726 9.2077
8/5/2022 4:30:00 PM 6.2836 9.2399
8/5/2022 4:45:00 PM 6.2778 9.2374
8/5/2022 5:00:00 PM 6.2645 9.2811
8/5/2022 5:15:00 PM 6.2544 9.3764
8/5/2022 5:30:00 PM 6.2467 9.5706
8/5/2022 5:45:00 PM 6.2454 9.7999
8/5/2022 6:00:00 PM 6.1857 9.7308
8/5/2022 6:15:00 PM 6.1844 9.7528
8/5/2022 6:30:00 PM 6.1997 9.6729
8/5/2022 6:45:00 PM 6.1672 9.6173
8/5/2022 7:00:00 PM 6.135 9.5437
8/5/2022 7:15:00 PM 6.1245 9.4949
8/5/2022 7:30:00 PM 6.1151 9.4469
8/5/2022 7:45:00 PM 6.1078 9.4263
8/5/2022 8:00:00 PM 6.0968 9.4135
8/5/2022 8:15:00 PM 6.0823 9.4392
8/5/2022 8:30:00 PM 6.0687 9.4315
8/5/2022 8:45:00 PM 6.0662 9.5
8/5/2022 9:00:00 PM 6.0514 9.4203
8/5/2022 9:15:00 PM 6.0418 9.4761
8/5/2022 9:30:00 PM 6.0294 9.4841
8/5/2022 9:45:00 PM 6.02 9.4962
8/5/2022 10:00:00 PM 6.0139 9.5369
8/5/2022 10:15:00 PM 6.0123 9.5018
8/5/2022 10:30:00 PM 6.0138 9.5206
8/5/2022 10:45:00 PM 6.0185 9.4969
8/5/2022 11:00:00 PM 6.0217 9.4432
8/5/2022 11:15:00 PM 6.0214 9.375
8/5/2022 11:30:00 PM 6.0185 9.3997
8/5/2022 11:45:00 PM 6.0186 9.4
8/6/2022 12:00:00 AM 6.0103 9.339
8/6/2022 12:15:00 AM 6.0071 9.2878
8/6/2022 12:30:00 AM 6.0047 9.3146
8/6/2022 12:45:00 AM 6.0074 9.3205
8/6/2022 1:00:00 AM 6.0084 9.3595
8/6/2022 1:15:00 AM 6.0067 9.2854
8/6/2022 1:30:00 AM 6.0098 9.2193
8/6/2022 1:45:00 AM 6.0121 9.2466
8/6/2022 2:00:00 AM 6.0145 9.2206
8/6/2022 2:15:00 AM 6.0214 9.1903
8/6/2022 2:30:00 AM 6.0219 9.1719
8/6/2022 2:45:00 AM 6.027 9.2
8/6/2022 3:00:00 AM 6.0317 9.1294
8/6/2022 3:15:00 AM 6.0355 9.07
8/6/2022 3:30:00 AM 6.0404 9.0611
8/6/2022 3:45:00 AM 6.0396 9.0863
8/6/2022 4:00:00 AM 6.0404 9.0244
8/6/2022 4:15:00 AM 6.0396 8.9926
8/6/2022 4:30:00 AM 6.0336 9.0503
8/6/2022 4:45:00 AM 6.0302 9.0778
8/6/2022 5:00:00 AM 6.0205 9.0819
8/6/2022 5:15:00 AM 6.0046 9.2793
8/6/2022 5:30:00 AM 5.9958 9.4122
8/6/2022 5:45:00 AM 5.9934 9.6
8/6/2022 6:00:00 AM 5.9832 9.539
8/6/2022 6:15:00 AM 5.9744 9.5489
8/6/2022 6:30:00 AM 5.9699 9.5616
8/6/2022 6:45:00 AM 5.9679 9.543
8/6/2022 7:00:00 AM 5.9611 9.5246
8/6/2022 7:15:00 AM 5.9588 9.5561
8/6/2022 7:30:00 AM 5.9548 9.4941
8/6/2022 7:45:00 AM 5.9533 9.3995
8/6/2022 8:00:00 AM 5.9498 9.32
8/6/2022 8:15:00 AM 5.9449 9.3779
8/6/2022 8:30:00 AM 5.9407 9.3327
8/6/2022 8:45:00 AM 5.9388 9.4
8/6/2022 9:00:00 AM 5.9334 9.3646
8/6/2022 9:15:00 AM 5.9398 9.3575
8/6/2022 9:30:00 AM 5.945 9.2582
8/6/2022 9:45:00 AM 5.9523 9.2283
8/6/2022 10:00:00 AM 5.9559 9.2194
8/6/2022 10:15:00 AM 5.9678 9.1962
8/6/2022 10:30:00 AM 5.9831 9.2097
8/6/2022 10:45:00 AM 6.0082 9.1256
8/6/2022 11:00:00 AM 6.0431 9.1213
8/6/2022 11:15:00 AM 6.0625 9.0863
8/6/2022 11:30:00 AM 6.0616 9.1255
8/6/2022 11:45:00 AM 6.0592 9.1
8/6/2022 12:00:00 PM 6.0677 9.1288
8/6/2022 12:15:00 PM 6.0839 9.0818
8/6/2022 12:30:00 PM 6.1064 9.0266
8/6/2022 12:45:00 PM 6.1194 9.0989
8/6/2022 1:00:00 PM 6.129 9.0649
8/6/2022 1:15:00 PM 6.1428 9.0863
8/6/2022 1:30:00 PM 6.1543 9.0773
8/6/2022 1:45:00 PM 6.1567 9.0441
8/6/2022 2:00:00 PM 6.1529 8.9529
8/6/2022 2:15:00 PM 6.1475 8.9866
8/6/2022 2:30:00 PM 6.1726 8.9974
8/6/2022 2:45:00 PM 6.1905 8.9359
8/6/2022 3:00:00 PM 6.2071 8.927
8/6/2022 3:15:00 PM 6.2243 8.9296
8/6/2022 3:30:00 PM 6.2609 8.9454
8/6/2022 3:45:00 PM 6.2977 8.8982
8/6/2022 4:00:00 PM 6.3299 8.8997
8/6/2022 4:15:00 PM 6.3482 8.8331
8/6/2022 4:30:00 PM 6.3663 8.8318
8/6/2022 4:45:00 PM 6.3763 8.8421
8/6/2022 5:00:00 PM 6.4001 8.8316
8/6/2022 5:15:00 PM 6.4231 8.7998
8/6/2022 5:30:00 PM 6.4372 8.8483
8/6/2022 5:45:00 PM 6.447 8.9
8/6/2022 6:00:00 PM 6.4827 8.845
8/6/2022 6:15:00 PM 6.4975 8.8139
8/6/2022 6:30:00 PM 6.5049 8.744
8/6/2022 6:45:00 PM 6.5036 8.7842
8/6/2022 7:00:00 PM 6.5047 8.8514
8/6/2022 7:15:00 PM 6.478 8.7928
8/6/2022 7:30:00 PM 6.4471 8.7314
8/6/2022 7:45:00 PM 6.424 8.7273
8/6/2022 8:00:00 PM 6.386 8.7168
8/6/2022 8:15:00 PM 6.3534 8.7554
8/6/2022 8:30:00 PM 6.3307 8.7517
8/6/2022 8:45:00 PM 6.321 8.7
8/6/2022 9:00:00 PM 6.284 8.7198
8/6/2022 9:15:00 PM 6.2604 8.7793
8/6/2022 9:30:00 PM 6.2426 8.8408
8/6/2022 9:45:00 PM 6.2279 8.8304
8/6/2022 10:00:00 PM 6.2211 8.8274
8/6/2022 10:15:00 PM 6.2153 8.8407
8/6/2022 10:30:00 PM 6.2078 8.8441
8/6/2022 10:45:00 PM 6.2032 8.7539
8/6/2022 11:00:00 PM 6.1934 8.718
8/6/2022 11:15:00 PM 6.1863 8.7289
8/6/2022 11:30:00 PM 6.1823 8.7313
8/6/2022 11:45:00 PM 6.181 8.7
8/7/2022 12:00:00 AM 6.188 8.7578
8/7/2022 12:15:00 AM 6.1912 8.7294
8/7/2022 12:30:00 AM 6.1904 8.7384
8/7/2022 12:45:00 AM 6.1902 8.7781
8/7/2022 1:00:00 AM 6.1873 8.7626
8/7/2022 1:15:00 AM 6.1915 8.7283
8/7/2022 1:30:00 AM 6.1922 8.6732
8/7/2022 1:45:00 AM 6.1902 8.6294
8/7/2022 2:00:00 AM 6.1924 8.6203
8/7/2022 2:15:00 AM 6.1943 8.6316
8/7/2022 2:30:00 AM 6.1904 8.6226
8/7/2022 2:45:00 AM 6.1894 8.6
8/7/2022 3:00:00 AM 6.1958 8.5784
8/7/2022 3:15:00 AM 6.1945 8.5218
8/7/2022 3:30:00 AM 6.1887 8.5364
8/7/2022 3:45:00 AM 6.184 8.5142
8/7/2022 4:00:00 AM 6.1796 8.4251
8/7/2022 4:15:00 AM 6.1744 8.4292
8/7/2022 4:30:00 AM 6.1695 8.4394
8/7/2022 4:45:00 AM 6.1658 8.3934
8/7/2022 5:00:00 AM 6.1614 8.3329
8/7/2022 5:15:00 AM 6.1575 8.3892
8/7/2022 5:30:00 AM 6.1529 8.41
8/7/2022 5:45:00 AM 6.1502 8.3
8/7/2022 6:00:00 AM 6.1471 8.3356
8/7/2022 6:15:00 AM 6.1445 8.3057
8/7/2022 6:30:00 AM 6.1417 8.2525
8/7/2022 6:45:00 AM 6.1404 8.2919
8/7/2022 7:00:00 AM 6.1416 8.3065
8/7/2022 7:15:00 AM 6.1462 8.2479
8/7/2022 7:30:00 AM 6.1486 8.246
8/7/2022 7:45:00 AM 6.1507 8.2271
8/7/2022 8:00:00 AM 6.1524 8.2407
8/7/2022 8:15:00 AM 6.156 8.2585
8/7/2022 8:30:00 AM 6.1634 8.1708
8/7/2022 8:45:00 AM 6.167 8.2
8/7/2022 9:00:00 AM 6.1922 8.1278
8/7/2022 9:15:00 AM 6.2013 8.0398
8/7/2022 9:30:00 AM 6.2068 8.0258
8/7/2022 9:45:00 AM 6.2054 8.047
8/7/2022 10:00:00 AM 6.1994 8.0235
8/7/2022 10:15:00 AM 6.2052 8.0632
8/7/2022 10:30:00 AM 6.2301 8.0781
8/7/2022 10:45:00 AM 6.249 8.0417
8/7/2022 11:00:00 AM 6.257 8.0472
8/7/2022 11:15:00 AM 6.2804 7.9932
8/7/2022 11:30:00 AM 6.2984 7.9484
8/7/2022 11:45:00 AM 6.307 8
8/7/2022 12:00:00 PM 6.3014 7.9199
8/7/2022 12:15:00 PM 6.29 7.9466
8/7/2022 12:30:00 PM 6.2881 7.9295
8/7/2022 12:45:00 PM 6.306 7.9351
8/7/2022 1:00:00 PM 6.3165 7.9416
8/7/2022 1:15:00 PM 6.2908 7.9456
8/7/2022 1:30:00 PM 6.2773 7.9461
8/7/2022 1:45:00 PM 6.2794 7.9046
8/7/2022 2:00:00 PM 6.2891 7.8586
8/7/2022 2:15:00 PM 6.2899 7.8337
8/7/2022 2:30:00 PM 6.2978 7.8633
8/7/2022 2:45:00 PM 6.3067 7.8233
8/7/2022 3:00:00 PM 6.3131 7.7903
8/7/2022 3:15:00 PM 6.3293 7.7862
8/7/2022 3:30:00 PM 6.3482 7.8284
8/7/2022 3:45:00 PM 6.3612 7.8531
8/7/2022 4:00:00 PM 6.376 7.8268
8/7/2022 4:15:00 PM 6.402 7.8249
8/7/2022 4:30:00 PM 6.4387 7.8275
8/7/2022 4:45:00 PM 6.4826 7.8528
8/7/2022 5:00:00 PM 6.4949 7.8314
8/7/2022 5:15:00 PM 6.488 7.7886
8/7/2022 5:30:00 PM 6.4866 7.7854
8/7/2022 5:45:00 PM 6.4834 7.8
8/7/2022 6:00:00 PM 6.5053 7.773
8/7/2022 6:15:00 PM 6.5107 7.7715
8/7/2022 6:30:00 PM 6.5136 7.8206
8/7/2022 6:45:00 PM 6.51 7.8212
8/7/2022 7:00:00 PM 6.5148 7.9247
8/7/2022 7:15:00 PM 6.5086 7.8688
8/7/2022 7:30:00 PM 6.4971 7.838
8/7/2022 7:45:00 PM 6.4853 7.8321
8/7/2022 8:00:00 PM 6.4662 7.8374
8/7/2022 8:15:00 PM 6.4444 7.8906
8/7/2022 8:30:00 PM 6.4221 8.0157
8/7/2022 8:45:00 PM 6.4106 8
8/7/2022 9:00:00 PM 6.4042 8.0216
8/7/2022 9:15:00 PM 6.3946 7.9734
8/7/2022 9:30:00 PM 6.3888 8.0232
8/7/2022 9:45:00 PM 6.3929 8.05
8/7/2022 10:00:00 PM 6.3953 8.017
8/7/2022 10:15:00 PM 6.3891 7.9198
8/7/2022 10:30:00 PM 6.3144 8.0208
8/7/2022 10:45:00 PM 6.3567 7.9899
8/7/2022 11:00:00 PM 6.3989 8.0112
8/7/2022 11:15:00 PM 6.3939 8.0074
8/7/2022 11:30:00 PM 6.3931 7.9841
8/7/2022 11:45:00 PM 6.3952 8
8/8/2022 12:00:00 AM 6.388 8.0192
8/8/2022 12:15:00 AM 6.383 8.0007
8/8/2022 12:30:00 AM 6.3829 8.0156
8/8/2022 12:45:00 AM 6.3805 8.0212
8/8/2022 1:00:00 AM 6.3752 8.0016
8/8/2022 1:15:00 AM 6.3695 8.0049
8/8/2022 1:30:00 AM 6.3639 8.0182
8/8/2022 1:45:00 AM 6.3617 8.004
8/8/2022 2:00:00 AM 6.3594 8.0371
8/8/2022 2:15:00 AM 6.352 8.015
8/8/2022 2:30:00 AM 6.3447 7.958
8/8/2022 2:45:00 AM 6.3462 8
8/8/2022 3:00:00 AM 6.2653 8.0055
8/8/2022 3:15:00 AM 6.3065 8.0213
8/8/2022 3:30:00 AM 6.302 7.998
8/8/2022 3:45:00 AM 6.2922 8.0027
8/8/2022 4:00:00 AM 6.2866 7.9998
8/8/2022 4:15:00 AM 6.2863 8.0042
8/8/2022 4:30:00 AM 6.2827 8.0271
8/8/2022 4:45:00 AM 6.2773 8.002
8/8/2022 5:00:00 AM 6.2759 8.0094
8/8/2022 5:15:00 AM 6.2719 8.0323
8/8/2022 5:30:00 AM 6.2622 7.9905
8/8/2022 5:45:00 AM 6.2566 8
8/8/2022 6:00:00 AM 6.2375 7.9984
8/8/2022 6:15:00 AM 6.2266 8.0152
8/8/2022 6:30:00 AM 6.2218 8.0053
8/8/2022 6:45:00 AM 6.2305 8.0037
8/8/2022 7:00:00 AM 6.2276 8.0139
8/8/2022 7:15:00 AM 6.2251 8.0048
8/8/2022 7:30:00 AM 6.2282 8.0089
8/8/2022 7:45:00 AM 6.2313 8.0081
8/8/2022 8:00:00 AM 6.2341 8.0249
8/8/2022 8:15:00 AM 6.2296 8.0019
8/8/2022 8:30:00 AM 6.2251 8.0054
8/8/2022 8:45:00 AM 6.2296 8.0044
8/8/2022 9:00:00 AM 6.245 8.02
8/8/2022 9:15:00 AM 6.262 8.0169
8/8/2022 9:30:00 AM 6.2693 8.0053
8/8/2022 9:45:00 AM 6.2778 8.0379
8/8/2022 10:00:00 AM 6.296 8.0109
8/8/2022 10:15:00 AM 6.3058 8.0052
8/8/2022 10:30:00 AM 6.3133 8.027
8/8/2022 10:45:00 AM 6.3293 8.0255
8/8/2022 11:00:00 AM 6.3319 7.9869
8/8/2022 11:15:00 AM 6.3338 8.008
8/8/2022 11:30:00 AM 6.3493 8.0064
8/8/2022 11:45:00 AM 6.356 8
8/8/2022 12:00:00 PM 6.3483 8.0219
8/8/2022 12:15:00 PM 6.355 7.9998
8/8/2022 12:30:00 PM 6.3694 8.0243
8/8/2022 12:45:00 PM 6.3813 8.0105
8/8/2022 1:00:00 PM 6.3779 8.0124
8/8/2022 1:15:00 PM 6.3931 7.3747
8/8/2022 1:30:00 PM 6.4136 3.939
8/8/2022 1:45:00 PM 6.4424 3.9963
8/8/2022 2:00:00 PM 6.4795 3.8635
8/8/2022 2:15:00 PM 6.4901 3.9622
8/8/2022 2:30:00 PM 6.4906 3.9478
8/8/2022 2:45:00 PM 6.4888 3.9347
8/8/2022 3:00:00 PM 6.4868 3.858
8/8/2022 3:15:00 PM 6.5106 3.9352
8/8/2022 3:30:00 PM 6.5315 3.9343
8/8/2022 3:45:00 PM 6.5332 4.0399
8/8/2022 4:00:00 PM 6.5536 4.048
8/8/2022 4:15:00 PM 6.5696 4.1159
8/8/2022 4:30:00 PM 6.5711 4.1867
8/8/2022 4:45:00 PM 6.566 4.2144
8/8/2022 5:00:00 PM 6.5213 4.4608
8/8/2022 5:15:00 PM 6.5037 4.1468
8/8/2022 5:30:00 PM 6.5162 4.0156
8/8/2022 5:45:00 PM 6.5254 4
8/8/2022 6:00:00 PM 6.5249 3.8524
8/8/2022 6:15:00 PM 6.5202 3.8367
8/8/2022 6:30:00 PM 6.5194 3.8291
8/8/2022 6:45:00 PM 6.5202 3.7775
8/8/2022 7:00:00 PM 6.5115 3.7236
8/8/2022 7:15:00 PM 6.5035 3.7027
8/8/2022 7:30:00 PM 6.4887 3.6452
8/8/2022 7:45:00 PM 6.475 3.6687
8/8/2022 8:00:00 PM 6.4711 3.9741
8/8/2022 8:15:00 PM 6.4639 4.1965
8/8/2022 8:30:00 PM 6.4537 4.322
8/8/2022 8:45:00 PM 6.447 4.4
8/8/2022 9:00:00 PM 6.4342 4.6967
8/8/2022 9:15:00 PM 6.4303 4.7566
8/8/2022 9:30:00 PM 6.4271 4.6632
8/8/2022 9:45:00 PM 6.426 4.6582
8/8/2022 10:00:00 PM 6.4165 4.6502
8/8/2022 10:15:00 PM 6.4124 4.7515
8/8/2022 10:30:00 PM 6.4062 4.7242
8/8/2022 10:45:00 PM 6.3954 4.7486
8/8/2022 11:00:00 PM 6.3284 5.9887
8/8/2022 11:15:00 PM 6.3826 6.719
8/8/2022 11:30:00 PM 6.3901 5.9789
8/8/2022 11:45:00 PM 6.391 5.9
8/9/2022 12:00:00 AM 6.3981 5.7004
8/9/2022 12:15:00 AM 6.3953 5.7059
8/9/2022 12:30:00 AM 6.388 5.51
8/9/2022 12:45:00 AM 6.3838 5.4601
8/9/2022 1:00:00 AM 6.378 5.5005
8/9/2022 1:15:00 AM 6.375 5.5975
8/9/2022 1:30:00 AM 6.3732 5.4768
8/9/2022 1:45:00 AM 6.3697 5.4191
8/9/2022 2:00:00 AM 6.3672 5.3592
8/9/2022 2:15:00 AM 6.3621 5.4044
8/9/2022 2:30:00 AM 6.3607 5.3761
8/9/2022 2:45:00 AM 6.3518 5.4
8/9/2022 3:00:00 AM 6.3483 5.7676
8/9/2022 3:15:00 AM 6.3437 5.7273
8/9/2022 3:30:00 AM 6.3394 5.5403
8/9/2022 3:45:00 AM 6.3329 5.4743
8/9/2022 4:00:00 AM 6.3256 5.5721
8/9/2022 4:15:00 AM 6.3164 5.6449
8/9/2022 4:30:00 AM 6.3066 5.9019
8/9/2022 4:45:00 AM 6.3003 6.0483
8/9/2022 5:00:00 AM 6.2744 6.1747
8/9/2022 5:15:00 AM 6.2136 5.4021
8/9/2022 5:30:00 AM 6.2457 5.0484
8/9/2022 5:45:00 AM 6.2454 5
8/9/2022 6:00:00 AM 6.2193 5.0526
8/9/2022 6:15:00 AM 6.2058 4.9985
8/9/2022 6:30:00 AM 6.1922 4.8054
8/9/2022 6:45:00 AM 6.1827 4.6602
8/9/2022 7:00:00 AM 6.174 4.4661
8/9/2022 7:15:00 AM 6.168 4.3537
8/9/2022 7:30:00 AM 6.161 4.247
8/9/2022 7:45:00 AM 6.1563 5.6185
8/9/2022 8:00:00 AM 6.1647 4.2988
8/9/2022 8:15:00 AM 6.1622 4.0641
8/9/2022 8:30:00 AM 6.1611 4.0072
8/9/2022 8:45:00 AM 6.1628 4.1
8/9/2022 9:00:00 AM 6.1641 3.9075
8/9/2022 9:15:00 AM 6.1763 4.2234
8/9/2022 9:30:00 AM 6.1887 4.0326
8/9/2022 9:45:00 AM 6.1777 3.9961
8/9/2022 10:00:00 AM 6.1672 3.8592
8/9/2022 10:15:00 AM 6.1305 3.8604
8/9/2022 10:30:00 AM 6.1033 3.8451
8/9/2022 10:45:00 AM 6.0973 3.7919
8/9/2022 11:00:00 AM 6.095 4.0433
8/9/2022 11:15:00 AM 6.1 3.8642
8/9/2022 11:30:00 AM 6.101 3.8251
8/9/2022 11:45:00 AM 6.1124 3.8
8/9/2022 12:00:00 PM 6.1496 3.748
8/9/2022 12:15:00 PM 6.1797 3.7207
8/9/2022 12:30:00 PM 6.1862 3.699
8/9/2022 12:45:00 PM 6.1922 3.6675
8/9/2022 1:00:00 PM 6.1993 3.6275
8/9/2022 1:15:00 PM 6.2139 3.6522
8/9/2022 1:30:00 PM 6.2126 3.6262
8/9/2022 1:45:00 PM 6.2209 3.5704
8/9/2022 2:00:00 PM 6.238 3.6271
8/9/2022 2:15:00 PM 6.255 3.5806
8/9/2022 2:30:00 PM 6.278 3.537
8/9/2022 2:45:00 PM 6.3074 3.523
8/9/2022 3:00:00 PM 6.3254 3.5323
8/9/2022 3:15:00 PM 6.3549 3.5261
8/9/2022 3:30:00 PM 6.3266 3.526
8/9/2022 3:45:00 PM 6.3127 3.5961
8/9/2022 4:00:00 PM 6.3164 3.6422
8/9/2022 4:15:00 PM 6.3213 3.6306
8/9/2022 4:30:00 PM 6.3322 3.6277
8/9/2022 4:45:00 PM 6.3468 3.6141
8/9/2022 5:00:00 PM 6.3561 3.4902
8/9/2022 5:15:00 PM 6.3647 3.4449
8/9/2022 5:30:00 PM 6.3539 3.5444
8/9/2022 5:45:00 PM 6.3504 3.5
8/9/2022 6:00:00 PM 6.3598 3.5327
8/9/2022 6:15:00 PM 6.3649 3.5572
8/9/2022 6:30:00 PM 6.3643 3.5888
8/9/2022 6:45:00 PM 6.3661 3.6031
8/9/2022 7:00:00 PM 6.3756 3.6523
8/9/2022 7:15:00 PM 6.3812 3.7061
8/9/2022 7:30:00 PM 6.3703 3.6381
8/9/2022 7:45:00 PM 6.3663 3.6465
8/9/2022 8:00:00 PM 6.3639 3.639
8/9/2022 8:15:00 PM 6.3485 3.6748
8/9/2022 8:30:00 PM 6.3431 3.859
8/9/2022 8:45:00 PM 6.3434 4
8/9/2022 9:00:00 PM 6.3381 4.1335
8/9/2022 9:15:00 PM 6.3298 4.1439
8/9/2022 9:30:00 PM 6.3233 4.1428
8/9/2022 9:45:00 PM 6.3197 4.1526
8/9/2022 10:00:00 PM 6.3132 4.2484
8/9/2022 10:15:00 PM 6.3107 4.4097
8/9/2022 10:30:00 PM 6.3059 4.3499
8/9/2022 10:45:00 PM 6.3047 4.3078
8/9/2022 11:00:00 PM 6.304 4.2865
8/9/2022 11:15:00 PM 6.2977 4.2444
8/9/2022 11:30:00 PM 6.2852 4.2403
8/9/2022 11:45:00 PM 6.2776 4.3
8/10/2022 12:00:00 AM 6.2325 5.5396
8/10/2022 12:15:00 AM 6.2522 6.5627
8/10/2022 12:30:00 AM 6.2679 5.9011
8/10/2022 12:45:00 AM 6.2706 5.5823
8/10/2022 1:00:00 AM 6.2678 5.6473
8/10/2022 1:15:00 AM 6.2632 5.5761
8/10/2022 1:30:00 AM 6.2605 5.5232
8/10/2022 1:45:00 AM 6.2559 5.4342
8/10/2022 2:00:00 AM 6.2529 5.2899
8/10/2022 2:15:00 AM 6.2501 5.3969
8/10/2022 2:30:00 AM 6.2438 5.4213
8/10/2022 2:45:00 AM 6.244 5.3
8/10/2022 3:00:00 AM 6.2405 5.434
8/10/2022 3:15:00 AM 6.2298 5.3973
8/10/2022 3:30:00 AM 6.2267 5.3231
8/10/2022 3:45:00 AM 6.2278 5.514
8/10/2022 4:00:00 AM 6.2288 5.8788
8/10/2022 4:15:00 AM 6.2228 6.0268
8/10/2022 4:30:00 AM 6.2234 6.4541
8/10/2022 4:45:00 AM 6.2221 6.3105
8/10/2022 5:00:00 AM 6.1805 5.5704
8/10/2022 5:15:00 AM 6.1906 4.6996
8/10/2022 5:30:00 AM 6.1855 4.4948
8/10/2022 5:45:00 AM 6.188 4.5001
8/10/2022 6:00:00 AM 6.1852 4.4355
8/10/2022 6:15:00 AM 6.177 4.3005
8/10/2022 6:30:00 AM 6.1722 4.2069
8/10/2022 6:45:00 AM 6.1732 4.1859
8/10/2022 7:00:00 AM 6.1781 4.1488
8/10/2022 7:15:00 AM 6.1768 4.1285
8/10/2022 7:30:00 AM 6.1803 4.0276
8/10/2022 7:45:00 AM 6.1795 3.9515
8/10/2022 8:00:00 AM 6.1759 3.942
8/10/2022 8:15:00 AM 6.1869 3.8938
8/10/2022 8:30:00 AM 6.2087 3.8459
8/10/2022 8:45:00 AM 6.2202 3.8
8/10/2022 9:00:00 AM 6.2431 3.7048
8/10/2022 9:15:00 AM 6.2609 3.9019
8/10/2022 9:30:00 AM 6.2745 5.0308
8/10/2022 9:45:00 AM 6.2874 3.8237
8/10/2022 10:00:00 AM 6.2988 3.5834
8/10/2022 10:15:00 AM 6.3053 3.5414
8/10/2022 10:30:00 AM 6.3163 3.5243
8/10/2022 10:45:00 AM 6.3259 3.5246
8/10/2022 11:00:00 AM 6.3368 3.474
8/10/2022 11:15:00 AM 6.341 3.5242
8/10/2022 11:30:00 AM 6.3529 3.4387
8/10/2022 11:45:00 AM 6.3532 3.5
8/10/2022 12:00:00 PM 6.3701 3.4494
8/10/2022 12:15:00 PM 6.3836 3.4304
8/10/2022 12:30:00 PM 6.3929 3.4009
8/10/2022 12:45:00 PM 6.4025 3.4017
8/10/2022 1:00:00 PM 6.4056 3.4084
8/10/2022 1:15:00 PM 6.4101 3.3852
8/10/2022 1:30:00 PM 6.4289 3.3938
8/10/2022 1:45:00 PM 6.4395 3.3818
8/10/2022 2:00:00 PM 6.4453 3.372
8/10/2022 2:15:00 PM 6.4528 3.3526
8/10/2022 2:30:00 PM 6.4629 3.3547
8/10/2022 2:45:00 PM 6.4813 3.3088
8/10/2022 3:00:00 PM 6.4948 3.2577
8/10/2022 3:15:00 PM 6.4961 3.2928
8/10/2022 3:30:00 PM 6.4975 3.2709
8/10/2022 3:45:00 PM 6.5169 3.2541
8/10/2022 4:00:00 PM 6.5298 3.1588
8/10/2022 4:15:00 PM 6.5207 3.1769
8/10/2022 4:30:00 PM 6.5143 3.3124
8/10/2022 4:45:00 PM 6.5215 3.2431
8/10/2022 5:00:00 PM 6.5255 3.3289
8/10/2022 5:15:00 PM 6.5102 3.2681
8/10/2022 5:30:00 PM 6.5008 3.2355
8/10/2022 5:45:00 PM 6.5016 3.3
8/10/2022 6:00:00 PM 6.5125 3.2475
8/10/2022 6:15:00 PM 6.5209 3.2978
8/10/2022 6:30:00 PM 6.5234 3.2691
8/10/2022 6:45:00 PM 6.5173 3.2833
8/10/2022 7:00:00 PM 6.5139 3.2894
8/10/2022 7:15:00 PM 6.4947 3.3695
8/10/2022 7:30:00 PM 6.4697 3.3307
8/10/2022 7:45:00 PM 6.4526 3.3357
8/10/2022 8:00:00 PM 6.4344 3.3819
8/10/2022 8:15:00 PM 6.4109 3.4321
8/10/2022 8:30:00 PM 6.3914 3.4874
8/10/2022 8:45:00 PM 6.377 3.5
8/10/2022 9:00:00 PM 6.336 3.6617
8/10/2022 9:15:00 PM 6.3164 3.7451
8/10/2022 9:30:00 PM 6.3055 3.7258
8/10/2022 9:45:00 PM 6.2966 3.756
8/10/2022 10:00:00 PM 6.2869 3.799
8/10/2022 10:15:00 PM 6.2784 3.7755
8/10/2022 10:30:00 PM 6.2763 3.7715
8/10/2022 10:45:00 PM 6.2503 5.2047
8/10/2022 11:00:00 PM 6.2805 5.5549
8/10/2022 11:15:00 PM 6.2951 5.1555
8/10/2022 11:30:00 PM 6.3012 4.961
8/10/2022 11:45:00 PM 6.3028 4.8
8/11/2022 12:00:00 AM 6.2935 4.9055
8/11/2022 12:15:00 AM 6.2857 4.9269
8/11/2022 12:30:00 AM 6.2859 4.8567
8/11/2022 12:45:00 AM 6.2838 4.7689
8/11/2022 1:00:00 AM 6.2828 4.7679
8/11/2022 1:15:00 AM 6.2757 4.7487
8/11/2022 1:30:00 AM 6.2697 4.873
8/11/2022 1:45:00 AM 6.2701 4.8076
8/11/2022 2:00:00 AM 6.2654 4.8155
8/11/2022 2:15:00 AM 6.2629 4.8155
8/11/2022 2:30:00 AM 6.2649 4.9011
8/11/2022 2:45:00 AM 6.2692 4.8
8/11/2022 3:00:00 AM 6.2696 4.8629
8/11/2022 3:15:00 AM 6.2636 4.7737
8/11/2022 3:30:00 AM 6.258 4.7582
8/11/2022 3:45:00 AM 6.2524 4.7515
8/11/2022 4:00:00 AM 6.2482 4.8898
8/11/2022 4:15:00 AM 6.2466 5.237
8/11/2022 4:30:00 AM 6.2481 5.2891
8/11/2022 4:45:00 AM 6.2482 5.0529
8/11/2022 5:00:00 AM 6.2474 5.1574
8/11/2022 5:15:00 AM 6.2478 5.3684
8/11/2022 5:30:00 AM 6.2481 5.4645
8/11/2022 5:45:00 AM 6.2496 5.5
8/11/2022 6:00:00 AM 6.2293 4.9266
8/11/2022 6:15:00 AM 6.2279 4.3439
8/11/2022 6:30:00 AM 6.2286 4.1756
8/11/2022 6:45:00 AM 6.2327 4.1434
8/11/2022 7:00:00 AM 6.2339 4.1094
8/11/2022 7:15:00 AM 6.2375 4.0164
8/11/2022 7:30:00 AM 6.2468 3.9469
8/11/2022 7:45:00 AM 6.2619 3.8611
8/11/2022 8:00:00 AM 6.275 3.8424
8/11/2022 8:15:00 AM 6.2894 4.2407
8/11/2022 8:30:00 AM 6.3084 4.4976
8/11/2022 8:45:00 AM 6.321 4
8/11/2022 9:00:00 AM 6.3396 3.793
8/11/2022 9:15:00 AM 6.3535 3.75
8/11/2022 9:30:00 AM 6.3685 3.9172
8/11/2022 9:45:00 AM 6.3961 3.8255
8/11/2022 10:00:00 AM 6.414 3.7584
8/11/2022 10:15:00 AM 6.4133 3.8328
8/11/2022 10:30:00 AM 6.4148 3.8418
8/11/2022 10:45:00 AM 6.4238 3.7834
8/11/2022 11:00:00 AM 6.4372 3.7646
8/11/2022 11:15:00 AM 6.4505 3.7508
8/11/2022 11:30:00 AM 6.462 3.6778
8/11/2022 11:45:00 AM 6.4708 3.6997
8/11/2022 12:00:00 PM 6.4871 3.6342
8/11/2022 12:15:00 PM 6.4926 3.6594
8/11/2022 12:30:00 PM 6.5012 3.6476
8/11/2022 12:45:00 PM 6.5069 3.6557
8/11/2022 1:00:00 PM 6.5107 3.6389
8/11/2022 1:15:00 PM 6.5068 3.6978
8/11/2022 1:30:00 PM 6.5145 3.6501
8/11/2022 1:45:00 PM 6.5202 3.6477
8/11/2022 2:00:00 PM 6.5239 3.5885
8/11/2022 2:15:00 PM 6.5248 3.6046
8/11/2022 2:30:00 PM 6.5287 3.5637
8/11/2022 2:45:00 PM 6.5274 3.593
8/11/2022 3:00:00 PM 6.5201 3.7444
8/11/2022 3:15:00 PM 6.5256 3.7331
8/11/2022 3:30:00 PM 6.529 3.7241
8/11/2022 3:45:00 PM 6.533 3.6194
8/11/2022 4:00:00 PM 6.5434 3.6821
8/11/2022 4:15:00 PM 6.5279 4.9262
8/11/2022 4:30:00 PM 6.6018 5.027
8/11/2022 4:45:00 PM 6.5981 4.5762
8/11/2022 5:00:00 PM 6.5943 4.4171
8/11/2022 5:15:00 PM 6.5796 4.3644
8/11/2022 5:30:00 PM 6.5805 4.3534
8/11/2022 5:45:00 PM 6.5842 4.3
8/11/2022 6:00:00 PM 6.5749 4.3812
8/11/2022 6:15:00 PM 6.5768 4.2818
8/11/2022 6:30:00 PM 6.5734 4.2298
8/11/2022 6:45:00 PM 6.5773 4.2697
8/11/2022 7:00:00 PM 6.5721 4.1674
8/11/2022 7:15:00 PM 6.5666 4.2249
8/11/2022 7:30:00 PM 6.5504 4.1848
8/11/2022 7:45:00 PM 6.5288 4.2207
8/11/2022 8:00:00 PM 6.5025 4.1469
8/11/2022 8:15:00 PM 6.484 4.2655
8/11/2022 8:30:00 PM 6.4628 4.3912
8/11/2022 8:45:00 PM 6.4526 4.6
8/11/2022 9:00:00 PM 6.425 4.7346
8/11/2022 9:15:00 PM 6.4098 4.7235
8/11/2022 9:30:00 PM 6.3967 4.7209
8/11/2022 9:45:00 PM 6.3826 5.1648
8/11/2022 10:00:00 PM 6.3754 5.0646
8/11/2022 10:15:00 PM 6.3639 4.9554
8/11/2022 10:30:00 PM 6.3562 5.0416
8/11/2022 10:45:00 PM 6.346 5.0636
8/11/2022 11:00:00 PM 6.341 4.8895
8/11/2022 11:15:00 PM 6.3338 4.7591
8/11/2022 11:30:00 PM 6.3278 4.7692
8/11/2022 11:45:00 PM 6.321 4.8
8/12/2022 12:00:00 AM 6.3119 5.4073
8/12/2022 12:15:00 AM 6.305 4.9017
8/12/2022 12:30:00 AM 6.295 4.9569
8/12/2022 12:45:00 AM 6.2858 5.3271
8/12/2022 1:00:00 AM 6.2795 5.0231
8/12/2022 1:15:00 AM 6.266 5.0991
8/12/2022 1:30:00 AM 6.2562 5.2462
8/12/2022 1:45:00 AM 6.2514 5.1113
8/12/2022 2:00:00 AM 6.2454 5.0534
8/12/2022 2:15:00 AM 6.2422 5.1406
8/12/2022 2:30:00 AM 6.2378 5.0099
8/12/2022 2:45:00 AM 6.237 4.9
8/12/2022 3:00:00 AM 6.2105 25.8209
8/12/2022 3:15:00 AM 6.2096 7.5752
8/12/2022 3:30:00 AM 6.2194 5.3039
8/12/2022 3:45:00 AM 6.22 5.3224
8/12/2022 4:00:00 AM 6.2172 5.1554
8/12/2022 4:15:00 AM 6.2158 5.0228
8/12/2022 4:30:00 AM 6.2143 4.9653
8/12/2022 4:45:00 AM 6.2112 4.9339
8/12/2022 5:00:00 AM 6.2089 4.8685
8/12/2022 5:15:00 AM 6.2018 4.9388
8/12/2022 5:30:00 AM 6.1878 5.0971
8/12/2022 5:45:00 AM 6.1824 5.1999
8/12/2022 6:00:00 AM 6.1575 5.1079
8/12/2022 6:15:00 AM 6.1644 4.5003
8/12/2022 6:30:00 AM 6.1591 4.2727
8/12/2022 6:45:00 AM 6.1588 4.1559
8/12/2022 7:00:00 AM 6.172 4.1313
8/12/2022 7:15:00 AM 6.1743 4.1986
8/12/2022 7:30:00 AM 6.1762 4.0658
8/12/2022 7:45:00 AM 6.1785 4.077
8/12/2022 8:00:00 AM 6.1863 4.054
8/12/2022 8:15:00 AM 6.2015 4.2885
8/12/2022 8:30:00 AM 6.2212 4.2994
8/12/2022 8:45:00 AM 6.2216 4.5001
8/12/2022 9:00:00 AM 6.2462 3.7923
8/12/2022 9:15:00 AM 6.2665 3.7568
8/12/2022 9:30:00 AM 6.2832 3.7465
8/12/2022 9:45:00 AM 6.2985 3.758
8/12/2022 10:00:00 AM 6.3175 3.972
8/12/2022 10:15:00 AM 6.3372 3.9483
8/12/2022 10:30:00 AM 6.3538 3.8537
8/12/2022 10:45:00 AM 6.3733 7.5675
8/12/2022 11:00:00 AM 6.3875 4.7523
8/12/2022 11:15:00 AM 6.4166 4.8459
8/12/2022 11:30:00 AM 6.423 3.7425
8/12/2022 11:45:00 AM 6.4274 3.7999
8/12/2022 12:00:00 PM 6.4611 3.8266
8/12/2022 12:15:00 PM 6.4622 3.8371
8/12/2022 12:30:00 PM 6.4628 3.8276
8/12/2022 12:45:00 PM 6.4689 3.8522
8/12/2022 1:00:00 PM 6.4835 3.869
8/12/2022 1:15:00 PM 6.5017 3.8348
8/12/2022 1:30:00 PM 6.5117 3.8132
8/12/2022 1:45:00 PM 6.5194 3.8521
8/12/2022 2:00:00 PM 6.5304 3.8412
8/12/2022 2:15:00 PM 6.5297 3.8709
8/12/2022 2:30:00 PM 6.5355 3.7761
8/12/2022 2:45:00 PM 6.5436 3.8568
8/12/2022 3:00:00 PM 6.551 3.9152
8/12/2022 3:15:00 PM 6.5683 3.9377
8/12/2022 3:30:00 PM 6.5734 3.8509
8/12/2022 3:45:00 PM 6.5765 3.8279
8/12/2022 4:00:00 PM 6.5854 3.8333
8/12/2022 4:15:00 PM 6.5887 3.8546
8/12/2022 4:30:00 PM 6.5887 3.8249
8/12/2022 4:45:00 PM 6.5961 3.7587
8/12/2022 5:00:00 PM 6.6024 3.7673
8/12/2022 5:15:00 PM 6.6078 3.7915
8/12/2022 5:30:00 PM 6.6086 3.7912
8/12/2022 5:45:00 PM 6.6136 3.8
8/12/2022 6:00:00 PM 6.6228 3.7465
8/12/2022 6:15:00 PM 6.6462 3.7416
8/12/2022 6:30:00 PM 6.6836 3.7655
8/12/2022 6:45:00 PM 6.7123 3.7373
8/12/2022 7:00:00 PM 6.7156 3.7191
8/12/2022 7:15:00 PM 6.7092 3.7979
8/12/2022 7:30:00 PM 6.6866 3.8492
8/12/2022 7:45:00 PM 6.632 3.8666
8/12/2022 8:00:00 PM 6.5853 3.8456
8/12/2022 8:15:00 PM 6.5377 3.8642
8/12/2022 8:30:00 PM 6.4969 3.9098
8/12/2022 8:45:00 PM 6.4778 4
8/12/2022 9:00:00 PM 6.4293 4.0303
8/12/2022 9:15:00 PM 6.4157 4.0449
8/12/2022 9:30:00 PM 6.3986 4.0628
8/12/2022 9:45:00 PM 6.3869 4.0819
8/12/2022 10:00:00 PM 6.3759 4.1856
8/12/2022 10:15:00 PM 6.3643 4.2512
8/12/2022 10:30:00 PM 6.3568 4.2339
8/12/2022 10:45:00 PM 6.3192 4.5684
8/12/2022 11:00:00 PM 6.3469 5.0627
8/12/2022 11:15:00 PM 6.3475 5.0204
8/12/2022 11:30:00 PM 6.3411 4.8543
8/12/2022 11:45:00 PM 6.342 4.8
8/13/2022 12:00:00 AM 6.3364 4.7988
8/13/2022 12:15:00 AM 6.3331 4.7516
8/13/2022 12:30:00 AM 6.3294 4.6513
8/13/2022 12:45:00 AM 6.3242 4.7958
8/13/2022 1:00:00 AM 6.3179 4.9121
8/13/2022 1:15:00 AM 6.307 4.6658
8/13/2022 1:30:00 AM 6.3009 4.6402
8/13/2022 1:45:00 AM 6.2941 4.9152
8/13/2022 2:00:00 AM 6.2894 4.7716
8/13/2022 2:15:00 AM 6.2794 4.8513
8/13/2022 2:30:00 AM 6.2665 6.9187
8/13/2022 2:45:00 AM 6.2692 5.8
8/13/2022 3:00:00 AM 6.2561 6.3944
8/13/2022 3:15:00 AM 6.2557 4.9883
8/13/2022 3:30:00 AM 6.2516 5.3043
8/13/2022 3:45:00 AM 6.2511 5.6019
8/13/2022 4:00:00 AM 6.2479 5.8758
8/13/2022 4:15:00 AM 6.236 6.7694
8/13/2022 4:30:00 AM 6.237 5.9649
8/13/2022 4:45:00 AM 6.2332 5.8833
8/13/2022 5:00:00 AM 6.226 6.0688
8/13/2022 5:15:00 AM 6.2217 5.4118
8/13/2022 5:30:00 AM 6.2207 5.1859
8/13/2022 5:45:00 AM 6.2202 5.1999
8/13/2022 6:00:00 AM 6.1855 5.1306
8/13/2022 6:15:00 AM 6.2048 4.57
8/13/2022 6:30:00 AM 6.1995 4.443
8/13/2022 6:45:00 AM 6.1983 4.436
8/13/2022 7:00:00 AM 6.1993 4.3403
8/13/2022 7:15:00 AM 6.1998 4.3224
8/13/2022 7:30:00 AM 6.2019 4.2636
8/13/2022 7:45:00 AM 6.2074 4.3171
8/13/2022 8:00:00 AM 6.2165 4.2373
8/13/2022 8:15:00 AM 6.2299 4.264
8/13/2022 8:30:00 AM 6.2428 4.2944
8/13/2022 8:45:00 AM 6.2496 4.3
8/13/2022 9:00:00 AM 6.2571 4.7255
8/13/2022 9:15:00 AM 6.3006 4.6714
8/13/2022 9:30:00 AM 6.3145 4.8397
8/13/2022 9:45:00 AM 6.331 4.7024
8/13/2022 10:00:00 AM 6.3433 4.5561
8/13/2022 10:15:00 AM 6.358 4.6512
8/13/2022 10:30:00 AM 6.3735 4.5921
8/13/2022 10:45:00 AM 6.394 4.4838
8/13/2022 11:00:00 AM 6.4115 4.4092
8/13/2022 11:15:00 AM 6.4304 4.3412
8/13/2022 11:30:00 AM 6.4479 4.3172
8/13/2022 11:45:00 AM 6.4596 4.3
8/13/2022 12:00:00 PM 6.4784 4.2466
8/13/2022 12:15:00 PM 6.4894 4.2762
8/13/2022 12:30:00 PM 6.5064 4.2354
8/13/2022 12:45:00 PM 6.5207 4.2463
8/13/2022 1:00:00 PM 6.5318 4.2756
8/13/2022 1:15:00 PM 6.5536 4.2975
8/13/2022 1:30:00 PM 6.5666 4.2244
8/13/2022 1:45:00 PM 6.589 4.1937
8/13/2022 2:00:00 PM 6.5893 4.1637
8/13/2022 2:15:00 PM 6.597 4.1219
8/13/2022 2:30:00 PM 6.6106 4.0501
8/13/2022 2:45:00 PM 6.6201 4.0473
8/13/2022 3:00:00 PM 6.6475 4.0472
8/13/2022 3:15:00 PM 6.6602 4.0558
8/13/2022 3:30:00 PM 6.6603 4.0508
8/13/2022 3:45:00 PM 6.6571 4.0756
8/13/2022 4:00:00 PM 6.652 4.1239
8/13/2022 4:15:00 PM 6.6645 4.0695
8/13/2022 4:30:00 PM 6.6638 4.029
8/13/2022 4:45:00 PM 6.6695 4.0521
8/13/2022 5:00:00 PM 6.6702 4.0355
8/13/2022 5:15:00 PM 6.661 4.5992
8/13/2022 5:30:00 PM 6.647 4.1928
8/13/2022 5:45:00 PM 6.643 4.1
8/13/2022 6:00:00 PM 6.6394 4.0671
8/13/2022 6:15:00 PM 6.6361 4.0641
8/13/2022 6:30:00 PM 6.6136 4.0537
8/13/2022 6:45:00 PM 6.6089 4.0685
8/13/2022 7:00:00 PM 6.6091 4.0331
8/13/2022 7:15:00 PM 6.6038 4.0631
8/13/2022 7:30:00 PM 6.5934 4.0909
8/13/2022 7:45:00 PM 6.5727 4.3186
8/13/2022 8:00:00 PM 6.5473 4.2786
8/13/2022 8:15:00 PM 6.5235 4.2962
8/13/2022 8:30:00 PM 6.5048 4.2876
8/13/2022 8:45:00 PM 6.4932 4.3
8/13/2022 9:00:00 PM 6.4547 4.4665
8/13/2022 9:15:00 PM 6.4334 4.905
8/13/2022 9:30:00 PM 6.4111 4.6507
8/13/2022 9:45:00 PM 6.3887 4.6849
8/13/2022 10:00:00 PM 6.3688 4.6303
8/13/2022 10:15:00 PM 6.3593 4.6099
8/13/2022 10:30:00 PM 6.3567 4.5644
8/13/2022 10:45:00 PM 6.3488 4.6482
8/13/2022 11:00:00 PM 6.3411 4.8116
8/13/2022 11:15:00 PM 6.3318 4.7757
8/13/2022 11:30:00 PM 6.3243 5.0182
8/13/2022 11:45:00 PM 6.3196 4.9
8/14/2022 12:00:00 AM 6.302 5.3811
8/14/2022 12:15:00 AM 6.2973 5.4751
8/14/2022 12:30:00 AM 6.2899 5.034
8/14/2022 12:45:00 AM 6.2826 4.9793
8/14/2022 1:00:00 AM 6.2755 5.1847
8/14/2022 1:15:00 AM 6.2695 5.2953
8/14/2022 1:30:00 AM 6.2619 5.1764
8/14/2022 1:45:00 AM 6.2562 5.0592
8/14/2022 2:00:00 AM 6.248 5.1035
8/14/2022 2:15:00 AM 6.2399 5.6315
8/14/2022 2:30:00 AM 6.2254 6.453
8/14/2022 2:45:00 AM 6.223 6.3001
8/14/2022 3:00:00 AM 6.2173 5.1775
8/14/2022 3:15:00 AM 6.2096 5.3388
8/14/2022 3:30:00 AM 6.2047 5.0176
8/14/2022 3:45:00 AM 6.1978 4.9782
8/14/2022 4:00:00 AM 6.1875 5.0184
8/14/2022 4:15:00 AM 6.1839 5.1836
8/14/2022 4:30:00 AM 6.1803 5.3171
8/14/2022 4:45:00 AM 6.1787 5.1718
8/14/2022 5:00:00 AM 6.1739 5.1624
8/14/2022 5:15:00 AM 6.1622 5.2361
8/14/2022 5:30:00 AM 6.1573 5.3568
8/14/2022 5:45:00 AM 6.1572 5.5
8/14/2022 6:00:00 AM 6.1176 4.9413
8/14/2022 6:15:00 AM 6.1278 4.7341
8/14/2022 6:30:00 AM 6.1314 4.6127
8/14/2022 6:45:00 AM 6.1296 4.5757
8/14/2022 7:00:00 AM 6.1317 4.5118
8/14/2022 7:15:00 AM 6.1282 4.5596
8/14/2022 7:30:00 AM 6.1345 4.5064
8/14/2022 7:45:00 AM 6.1391 4.665
8/14/2022 8:00:00 AM 6.1457 4.7882
8/14/2022 8:15:00 AM 6.1475 4.7492
8/14/2022 8:30:00 AM 6.1608 4.6116
8/14/2022 8:45:00 AM 6.1698 4.7
8/14/2022 9:00:00 AM 6.201 4.6023
8/14/2022 9:15:00 AM 6.2165 4.518
8/14/2022 9:30:00 AM 6.238 4.7137
8/14/2022 9:45:00 AM 6.2533 4.4614
8/14/2022 10:00:00 AM 6.2678 4.3334
8/14/2022 10:15:00 AM 6.2818 4.2587
8/14/2022 10:30:00 AM 6.2959 4.185
8/14/2022 10:45:00 AM 6.3114 4.1567
8/14/2022 11:00:00 AM 6.3262 4.1762
8/14/2022 11:15:00 AM 6.3441 4.2527
8/14/2022 11:30:00 AM 6.3607 4.2555
8/14/2022 11:45:00 AM 6.37 4.2
8/14/2022 12:00:00 PM 6.4023 44.1124
8/14/2022 12:15:00 PM 6.4244 4.4828
8/14/2022 12:30:00 PM 6.4427 4.1503
8/14/2022 12:45:00 PM 6.4492 4.0896
8/14/2022 1:00:00 PM 6.4512 4.0421
8/14/2022 1:15:00 PM 6.4553 4.0484
8/14/2022 1:30:00 PM 6.4667 3.9521
8/14/2022 1:45:00 PM 6.4885 3.9668
8/14/2022 2:00:00 PM 6.4967 3.9727
8/14/2022 2:15:00 PM 6.5002 3.9522
8/14/2022 2:30:00 PM 6.5139 3.8264
8/14/2022 2:45:00 PM 6.5178 3.8619
8/14/2022 3:00:00 PM 6.5488 3.8085
8/14/2022 3:15:00 PM 6.5463 3.8649
8/14/2022 3:30:00 PM 6.5387 3.8692
8/14/2022 3:45:00 PM 6.5519 3.8584
8/14/2022 4:00:00 PM 6.5622 3.8478
8/14/2022 4:15:00 PM 6.5716 3.8694
8/14/2022 4:30:00 PM 6.5727 3.8226
8/14/2022 4:45:00 PM 6.5753 3.929
8/14/2022 5:00:00 PM 6.579 3.9283
8/14/2022 5:15:00 PM 6.5754 3.8827
8/14/2022 5:30:00 PM 6.5518 3.8216
8/14/2022 5:45:00 PM 6.5436 3.9
8/14/2022 6:00:00 PM 6.5154 3.9149
8/14/2022 6:15:00 PM 6.5025 4.0892
8/14/2022 6:30:00 PM 6.4944 3.9683
8/14/2022 6:45:00 PM 6.4912 3.9669
8/14/2022 7:00:00 PM 6.4904 3.8976
8/14/2022 7:15:00 PM 6.4839 3.8407
8/14/2022 7:30:00 PM 6.4551 3.8812
8/14/2022 7:45:00 PM 6.4298 4.0246
8/14/2022 8:00:00 PM 6.4046 4.0636
8/14/2022 8:15:00 PM 6.3736 4.0592
8/14/2022 8:30:00 PM 6.3535 4.0557
8/14/2022 8:45:00 PM 6.3392 4.1
8/14/2022 9:00:00 PM 6.3007 4.1257
8/14/2022 9:15:00 PM 6.2788 4.1575
8/14/2022 9:30:00 PM 6.2535 4.1842
8/14/2022 9:45:00 PM 6.2386 4.2572
8/14/2022 10:00:00 PM 6.2323 4.153
8/14/2022 10:15:00 PM 6.225 4.1459
8/14/2022 10:30:00 PM 6.2175 4.1704
8/14/2022 10:45:00 PM 6.1853 4.7598
8/14/2022 11:00:00 PM 6.2013 4.9744
8/14/2022 11:15:00 PM 6.2006 4.8424
8/14/2022 11:30:00 PM 6.1885 4.7578
8/14/2022 11:45:00 PM 6.1796 4.7
8/15/2022 12:00:00 AM 6.1737 4.7419
8/15/2022 12:15:00 AM 6.1679 4.8164
8/15/2022 12:30:00 AM 6.1668 4.6634
8/15/2022 12:45:00 AM 6.1606 4.9728
8/15/2022 1:00:00 AM 6.1551 4.7557
8/15/2022 1:15:00 AM 6.1501 4.6573
8/15/2022 1:30:00 AM 6.148 4.6963
8/15/2022 1:45:00 AM 6.1434 4.8614
8/15/2022 2:00:00 AM 6.13 5.1199
8/15/2022 2:15:00 AM 6.1203 5.5601
8/15/2022 2:30:00 AM 6.1156 5.731
8/15/2022 2:45:00 AM 6.118 5.2
8/15/2022 3:00:00 AM 6.0771 5.5436
8/15/2022 3:15:00 AM 6.0677 4.9055
8/15/2022 3:30:00 AM 6.0687 4.7355
8/15/2022 3:45:00 AM 6.064 4.6549
8/15/2022 4:00:00 AM 6.0539 4.5526
8/15/2022 4:15:00 AM 6.0447 4.4818
8/15/2022 4:30:00 AM 6.0367 4.4793
8/15/2022 4:45:00 AM 6.0342 4.6348
8/15/2022 5:00:00 AM 6.0311 4.5942
8/15/2022 5:15:00 AM 6.0346 4.7079
8/15/2022 5:30:00 AM 6.0259 4.5725
8/15/2022 5:45:00 AM 6.0242 4.6
8/15/2022 6:00:00 AM 6.0169 4.7547
8/15/2022 6:15:00 AM 6.0184 4.6356
8/15/2022 6:30:00 AM 6.0128 4.4734
8/15/2022 6:45:00 AM 6.011 4.3981
8/15/2022 7:00:00 AM 6.0243 4.3415
8/15/2022 7:15:00 AM 6.0358 4.346
8/15/2022 7:30:00 AM 6.0366 4.4982
8/15/2022 7:45:00 AM 6.037 4.9252
8/15/2022 8:00:00 AM 6.0574 4.3731
8/15/2022 8:15:00 AM 6.076 4.2528
8/15/2022 8:30:00 AM 6.0757 4.2226
8/15/2022 8:45:00 AM 6.0718 4.2
8/15/2022 9:00:00 AM 6.1144 4.2426
8/15/2022 9:15:00 AM 6.13 4.2484
8/15/2022 9:30:00 AM 6.1556 4.0386
8/15/2022 9:45:00 AM 6.181 4.0582
8/15/2022 10:00:00 AM 6.2127 3.9787
8/15/2022 10:15:00 AM 6.238 4.0852
8/15/2022 10:30:00 AM 6.2576 4.0575
8/15/2022 10:45:00 AM 6.2738 4.2707
8/15/2022 11:00:00 AM 6.2877 4.1953
8/15/2022 11:15:00 AM 6.2953 4.2538
8/15/2022 11:30:00 AM 6.3025 4.0519
8/15/2022 11:45:00 AM 6.2972 4.1
8/15/2022 12:00:00 PM 6.3186 4.2779
8/15/2022 12:15:00 PM 6.3242 4.4287
8/15/2022 12:30:00 PM 6.3556 4.232
8/15/2022 12:45:00 PM 6.3837 4.0193
8/15/2022 1:00:00 PM 6.3982 3.9277
8/15/2022 1:15:00 PM 6.4099 3.9322
8/15/2022 1:30:00 PM 6.4212 3.9184
8/15/2022 1:45:00 PM 6.4202 3.9019
8/15/2022 2:00:00 PM 6.4329 3.8209
8/15/2022 2:15:00 PM 6.4508 3.8545
8/15/2022 2:30:00 PM 6.4709 3.8408
8/15/2022 2:45:00 PM 6.4787 3.8354
8/15/2022 3:00:00 PM 6.4594 3.8332
8/15/2022 3:15:00 PM 6.4398 3.8496
8/15/2022 3:30:00 PM 6.4397 3.8392
8/15/2022 3:45:00 PM 6.4442 3.8457
8/15/2022 4:00:00 PM 6.4442 3.7774
8/15/2022 4:15:00 PM 6.4524 3.7842
8/15/2022 4:30:00 PM 6.4753 3.7365
8/15/2022 4:45:00 PM 6.4871 3.7954
8/15/2022 5:00:00 PM 6.4891 3.8677
8/15/2022 5:15:00 PM 6.4875 3.8632
8/15/2022 5:30:00 PM 6.4847 3.8192
8/15/2022 5:45:00 PM 6.489 3.8
8/15/2022 6:00:00 PM 6.5166 3.7705
8/15/2022 6:15:00 PM 6.489 3.8021
8/15/2022 6:30:00 PM 6.4518 3.7971
8/15/2022 6:45:00 PM 6.43 3.8548
8/15/2022 7:00:00 PM 6.4142 3.9504
8/15/2022 7:15:00 PM 6.4049 3.8337
8/15/2022 7:30:00 PM 6.3837 3.8193
8/15/2022 7:45:00 PM 6.3577 3.8648
8/15/2022 8:00:00 PM 6.3383 3.8362
8/15/2022 8:15:00 PM 6.3211 3.8443
8/15/2022 8:30:00 PM 6.3026 3.8969
8/15/2022 8:45:00 PM 6.2832 3.9
8/15/2022 9:00:00 PM 6.2583 4.0339
8/15/2022 9:15:00 PM 6.2463 4.0518
8/15/2022 9:30:00 PM 6.2372 4.0644
8/15/2022 9:45:00 PM 6.2368 4.034
8/15/2022 10:00:00 PM 6.2299 4.0372
8/15/2022 10:15:00 PM 6.2157 4.2238
8/15/2022 10:30:00 PM 6.2062 4.1178
8/15/2022 10:45:00 PM 6.1992 4.0685
8/15/2022 11:00:00 PM 6.1718 4.3202
8/15/2022 11:15:00 PM 6.1917 5.1075
8/15/2022 11:30:00 PM 6.1947 5.013
8/15/2022 11:45:00 PM 6.1964 4.9
8/16/2022 12:00:00 AM 6.1876 4.935
8/16/2022 12:15:00 AM 6.18 4.8508
8/16/2022 12:30:00 AM 6.1785 4.7576
8/16/2022 12:45:00 AM 6.1707 4.8181
8/16/2022 1:00:00 AM 6.1673 4.7035
8/16/2022 1:15:00 AM 6.1579 4.6843
8/16/2022 1:30:00 AM 6.1479 4.7911
8/16/2022 1:45:00 AM 6.141 4.8505
8/16/2022 2:00:00 AM 6.1297 4.8812
8/16/2022 2:15:00 AM 6.1226 4.8908
8/16/2022 2:30:00 AM 6.1162 5.0504
8/16/2022 2:45:00 AM 6.1124 5
8/16/2022 3:00:00 AM 6.095 4.9289
8/16/2022 3:15:00 AM 6.0899 4.8694
8/16/2022 3:30:00 AM 6.0801 4.8626
8/16/2022 3:45:00 AM 6.0739 4.943
8/16/2022 4:00:00 AM 6.0682 4.8596
8/16/2022 4:15:00 AM 6.0695 4.8872
8/16/2022 4:30:00 AM 6.0703 4.8539
8/16/2022 4:45:00 AM 6.0662 5.0758
8/16/2022 5:00:00 AM 6.06 4.9703
8/16/2022 5:15:00 AM 6.0578 5.0212
8/16/2022 5:30:00 AM 6.0622 5.1025
8/16/2022 5:45:00 AM 6.0606 5.3999
8/16/2022 6:00:00 AM 6.0385 4.8921
8/16/2022 6:15:00 AM 6.051 4.4843
8/16/2022 6:30:00 AM 6.0533 4.2895
8/16/2022 6:45:00 AM 6.0473 4.2329
8/16/2022 7:00:00 AM 6.0483 4.1423
8/16/2022 7:15:00 AM 6.0512 4.0944
8/16/2022 7:30:00 AM 6.0554 4.0384
8/16/2022 7:45:00 AM 6.0632 3.9851
8/16/2022 8:00:00 AM 6.0764 3.9555
8/16/2022 8:15:00 AM 6.099 3.9659
8/16/2022 8:30:00 AM 6.1204 3.9403
8/16/2022 8:45:00 AM 6.1334 3.9
8/16/2022 9:00:00 AM 6.1773 4.0498
8/16/2022 9:15:00 AM 6.1854 7.5387
8/16/2022 9:30:00 AM 6.2194 5.0304
8/16/2022 9:45:00 AM 6.2432 4.5326
8/16/2022 10:00:00 AM 6.2598 4.2574
8/16/2022 10:15:00 AM 6.2793 4.3338
8/16/2022 10:30:00 AM 6.299 4.2175
8/16/2022 10:45:00 AM 6.3144 4.5684
8/16/2022 11:00:00 AM 6.33 4.4929
8/16/2022 11:15:00 AM 6.3494 4.2559
8/16/2022 11:30:00 AM 6.3697 4.3233
8/16/2022 11:45:00 AM 6.3826 4.3
8/16/2022 12:00:00 PM 6.4032 4.1882
8/16/2022 12:15:00 PM 6.4182 4.0829
8/16/2022 12:30:00 PM 6.4121 4.0108
8/16/2022 12:45:00 PM 6.4249 3.9702
8/16/2022 1:00:00 PM 6.4324 3.9558
8/16/2022 1:15:00 PM 6.4368 3.962
8/16/2022 1:30:00 PM 6.441 4.2479
8/16/2022 1:45:00 PM 6.4276 4.2219
8/16/2022 2:00:00 PM 6.4254 4.2491
8/16/2022 2:15:00 PM 6.4103 5.0765
8/16/2022 2:30:00 PM 6.4215 4.2368
8/16/2022 2:45:00 PM 6.4394 4.2087
8/16/2022 3:00:00 PM 6.4647 4.1609
8/16/2022 3:15:00 PM 6.4808 4.2635
8/16/2022 3:30:00 PM 6.4794 4.2104
8/16/2022 3:45:00 PM 6.4885 4.1355
8/16/2022 4:00:00 PM 6.4952 4.0705
8/16/2022 4:15:00 PM 6.4948 4.1648
8/16/2022 4:30:00 PM 6.4842 4.1526
8/16/2022 4:45:00 PM 6.4749 4.1385
8/16/2022 5:00:00 PM 6.4692 4.1379
8/16/2022 5:15:00 PM 6.4626 4.175
8/16/2022 5:30:00 PM 6.459 4.1366
8/16/2022 5:45:00 PM 6.4582 4.1
8/16/2022 6:00:00 PM 6.4082 4.2301
8/16/2022 6:15:00 PM 6.4208 4.7379
8/16/2022 6:30:00 PM 6.4231 4.5187
8/16/2022 6:45:00 PM 6.4148 4.5483
8/16/2022 7:00:00 PM 6.3816 4.609
8/16/2022 7:15:00 PM 6.3615 4.6333
8/16/2022 7:30:00 PM 6.3451 4.618
8/16/2022 7:45:00 PM 6.3347 4.6688
8/16/2022 8:00:00 PM 6.3172 4.728
8/16/2022 8:15:00 PM 6.3 4.8135
8/16/2022 8:30:00 PM 6.2803 4.8169
8/16/2022 8:45:00 PM 6.2664 4.7
8/16/2022 9:00:00 PM 6.2451 4.8233
8/16/2022 9:15:00 PM 6.2291 5.1432
8/16/2022 9:30:00 PM 6.2272 5.0523
8/16/2022 9:45:00 PM 6.224 5.007
8/16/2022 10:00:00 PM 6.2195 4.9459
8/16/2022 10:15:00 PM 6.2153 5.0423
8/16/2022 10:30:00 PM 6.2098 5.0123
8/16/2022 10:45:00 PM 6.2087 5.0747
8/16/2022 11:00:00 PM 6.205 5.108
8/16/2022 11:15:00 PM 6.1973 5.1571
8/16/2022 11:30:00 PM 6.1836 5.2357
8/16/2022 11:45:00 PM 6.1838 5.2
8/17/2022 12:00:00 AM 6.1641 5.2009
8/17/2022 12:15:00 AM 6.1569 5.2735
8/17/2022 12:30:00 AM 6.1501 5.3709
8/17/2022 12:45:00 AM 6.1398 5.492
8/17/2022 1:00:00 AM 6.131 5.4999
8/17/2022 1:15:00 AM 6.1242 5.6693
8/17/2022 1:30:00 AM 6.1178 6.0332
8/17/2022 1:45:00 AM 6.1102 6.4834
8/17/2022 2:00:00 AM 6.1048 6.2511
8/17/2022 2:15:00 AM 6.0948 6.5166
8/17/2022 2:30:00 AM 6.0891 6.749
8/17/2022 2:45:00 AM 6.0858 6.8999
8/17/2022 3:00:00 AM 6.0698 7.5049
8/17/2022 3:15:00 AM 6.0646 7.4911
8/17/2022 3:30:00 AM 6.0562 8.6238
8/17/2022 3:45:00 AM 6.0475 9.2339
8/17/2022 4:00:00 AM 6.044 8.4042
8/17/2022 4:15:00 AM 6.038 8.4728
8/17/2022 4:30:00 AM 6.0315 9.1393
8/17/2022 4:45:00 AM 6.0201 10.9351
8/17/2022 5:00:00 AM 6.0044 12.3486
8/17/2022 5:15:00 AM 5.9234 88.7704
8/17/2022 5:30:00 AM 5.6986 330.1533
8/17/2022 5:45:00 AM 5.8688 16.9001
8/17/2022 6:00:00 AM 5.9349 8.9865
8/17/2022 6:15:00 AM 5.9782 8.4054
8/17/2022 6:30:00 AM 5.9824 5.7869
8/17/2022 6:45:00 AM 5.9824 5.6265
8/17/2022 7:00:00 AM 5.9877 5.7463
8/17/2022 7:15:00 AM 5.9869 5.8462
8/17/2022 7:30:00 AM 5.9906 5.6567
8/17/2022 7:45:00 AM 5.9945 5.7348
8/17/2022 8:00:00 AM 6.0072 5.268
8/17/2022 8:15:00 AM 6.0214 5.2134
8/17/2022 8:30:00 AM 6.036 4.934
8/17/2022 8:45:00 AM 6.0466 4.8
8/17/2022 9:00:00 AM 6.0661 4.8582
8/17/2022 9:15:00 AM 6.0807 5.4723
8/17/2022 9:30:00 AM 6.1021 6.2737
8/17/2022 9:45:00 AM 6.1351 5.0333
8/17/2022 10:00:00 AM 6.1578 6.3096
8/17/2022 10:15:00 AM 6.1811 4.7955
8/17/2022 10:30:00 AM 6.2035 4.3066
8/17/2022 10:45:00 AM 6.2227 4.3023
8/17/2022 11:00:00 AM 6.2427 4.1596
8/17/2022 11:15:00 AM 6.2571 4.2324
8/17/2022 11:30:00 AM 6.2627 4.224
8/17/2022 11:45:00 AM 6.2692 4.2
8/17/2022 12:00:00 PM 6.3065 4.1585
8/17/2022 12:15:00 PM 6.318 4.243
8/17/2022 12:30:00 PM 6.33 4.14
8/17/2022 12:45:00 PM 6.3455 4.1586
8/17/2022 1:00:00 PM 6.3646 4.0727
8/17/2022 1:15:00 PM 6.3803 4.1255
8/17/2022 1:30:00 PM 6.3991 4.1583
8/17/2022 1:45:00 PM 6.4167 4.1849
8/17/2022 2:00:00 PM 6.4383 4.0404
8/17/2022 2:15:00 PM 6.4563 4.0579
8/17/2022 2:30:00 PM 6.4727 3.9738
8/17/2022 2:45:00 PM 6.4677 3.9871
8/17/2022 3:00:00 PM 6.4723 3.9313
8/17/2022 3:15:00 PM 6.451 3.9774
8/17/2022 3:30:00 PM 6.4553 3.9227
8/17/2022 3:45:00 PM 6.4857 3.8822
8/17/2022 4:00:00 PM 6.4686 3.8625
8/17/2022 4:15:00 PM 6.4604 3.8879
8/17/2022 4:30:00 PM 6.4627 3.9756
8/17/2022 4:45:00 PM 6.4709 3.9694
8/17/2022 5:00:00 PM 6.4753 3.8366
8/17/2022 5:15:00 PM 6.4687 3.9906
8/17/2022 5:30:00 PM 6.4647 3.9442
8/17/2022 5:45:00 PM 6.4694 4
8/17/2022 6:00:00 PM 6.4441 4.0347
8/17/2022 6:15:00 PM 6.4302 4.0897
8/17/2022 6:30:00 PM 6.4081 4.0419
8/17/2022 6:45:00 PM 6.3886 4.0675
8/17/2022 7:00:00 PM 6.3686 4.1423
8/17/2022 7:15:00 PM 6.3487 4.4731
8/17/2022 7:30:00 PM 6.3293 4.1501
8/17/2022 7:45:00 PM 6.3123 4.0692
8/17/2022 8:00:00 PM 6.2917 3.985
8/17/2022 8:15:00 PM 6.2759 3.981
8/17/2022 8:30:00 PM 6.2554 3.9467
8/17/2022 8:45:00 PM 6.251 4
8/17/2022 9:00:00 PM 6.2242 4.0385
8/17/2022 9:15:00 PM 6.2081 4.1539
8/17/2022 9:30:00 PM 6.182 4.1291
8/17/2022 9:45:00 PM 6.1656 4.1855
8/17/2022 10:00:00 PM 6.1532 4.0435
8/17/2022 10:15:00 PM 6.1424 4.0975
8/17/2022 10:30:00 PM 6.1342 4.0452
8/17/2022 10:45:00 PM 6.1289 4.1439
8/17/2022 11:00:00 PM 6.1213 4.1383
8/17/2022 11:15:00 PM 6.1127 4.156
8/17/2022 11:30:00 PM 6.1056 4.1553
8/17/2022 11:45:00 PM 6.1068 4.2
8/18/2022 12:00:00 AM 6.0913 4.1645
8/18/2022 12:15:00 AM 6.0876 4.1767
8/18/2022 12:30:00 AM 6.0873 4.156
8/18/2022 12:45:00 AM 6.0541 4.8249
8/18/2022 1:00:00 AM 6.0634 4.6214
8/18/2022 1:15:00 AM 6.057 4.6957
8/18/2022 1:30:00 AM 6.0502 4.5522
8/18/2022 1:45:00 AM 6.0478 4.527
8/18/2022 2:00:00 AM 6.037 4.4719
8/18/2022 2:15:00 AM 6.0277 4.4707
8/18/2022 2:30:00 AM 6.0157 4.4521
8/18/2022 2:45:00 AM 6.0074 4.5
8/18/2022 3:00:00 AM 6.0078 4.422
8/18/2022 3:15:00 AM 6.0112 4.6966
8/18/2022 3:30:00 AM 6.0094 4.4367
8/18/2022 3:45:00 AM 6.0071 4.4108
8/18/2022 4:00:00 AM 6.0013 4.3805
8/18/2022 4:15:00 AM 5.9958 4.5445
8/18/2022 4:30:00 AM 5.9889 4.4847
8/18/2022 4:45:00 AM 5.986 4.4863
8/18/2022 5:00:00 AM 5.9799 4.5129
8/18/2022 5:15:00 AM 5.9742 4.5988
8/18/2022 5:30:00 AM 5.9733 4.6144
8/18/2022 5:45:00 AM 5.971 4.5
8/18/2022 6:00:00 AM 5.982 4.6613
8/18/2022 6:15:00 AM 5.9721 4.6802
8/18/2022 6:30:00 AM 5.9832 4.4193
8/18/2022 6:45:00 AM 5.9872 4.3472
8/18/2022 7:00:00 AM 5.9877 4.1654
8/18/2022 7:15:00 AM 5.9929 4.1923
8/18/2022 7:30:00 AM 5.9969 4.0734
8/18/2022 7:45:00 AM 6.0051 4.1488
8/18/2022 8:00:00 AM 6.0183 4.0313
8/18/2022 8:15:00 AM 6.0251 4.0575
8/18/2022 8:30:00 AM 6.0388 4.0384
8/18/2022 8:45:00 AM 6.0452 4
8/18/2022 9:00:00 AM 6.0726 3.9342
8/18/2022 9:15:00 AM 6.0885 3.9304
8/18/2022 9:30:00 AM 6.1142 3.8516
8/18/2022 9:45:00 AM 6.1357 3.8901
8/18/2022 10:00:00 AM 6.1554 4.2485
8/18/2022 10:15:00 AM 6.173 3.8882
8/18/2022 10:30:00 AM 6.1884 3.7424
8/18/2022 10:45:00 AM 6.2104 3.7929
8/18/2022 11:00:00 AM 6.2246 3.7223
8/18/2022 11:15:00 AM 6.242 3.6774
8/18/2022 11:30:00 AM 6.2641 3.6481
8/18/2022 11:45:00 AM 6.2706 3.6999
8/18/2022 12:00:00 PM 6.3109 3.6463
8/18/2022 12:15:00 PM 6.3313 3.6262
8/18/2022 12:30:00 PM 6.3388 3.5996
8/18/2022 12:45:00 PM 6.3309 3.681
8/18/2022 1:00:00 PM 6.3276 3.6298
8/18/2022 1:15:00 PM 6.3343 3.6394
8/18/2022 1:30:00 PM 6.3319 3.5466
8/18/2022 1:45:00 PM 6.3366 3.5639
8/18/2022 2:00:00 PM 6.3438 3.5462
8/18/2022 2:15:00 PM 6.3488 3.5954
8/18/2022 2:30:00 PM 6.3652 3.5511
8/18/2022 2:45:00 PM 6.3717 3.5432
8/18/2022 3:00:00 PM 6.3702 3.5429
8/18/2022 3:15:00 PM 6.3754 3.5341
8/18/2022 3:30:00 PM 6.3804 3.5217
8/18/2022 3:45:00 PM 6.375 3.5521
8/18/2022 4:00:00 PM 6.3663 3.4919
8/18/2022 4:15:00 PM 6.3729 3.5798
8/18/2022 4:30:00 PM 6.3821 3.5536
8/18/2022 4:45:00 PM 6.3795 3.5617
8/18/2022 5:00:00 PM 6.3718 3.5581
8/18/2022 5:15:00 PM 6.3544 3.5771
8/18/2022 5:30:00 PM 6.3341 3.8369
8/18/2022 5:45:00 PM 6.3168 5.5
8/18/2022 6:00:00 PM 6.2881 4.3571
8/18/2022 6:15:00 PM 6.274 4.4592
8/18/2022 6:30:00 PM 6.2617 4.281
8/18/2022 6:45:00 PM 6.248 4.1088
8/18/2022 7:00:00 PM 6.2389 3.847
8/18/2022 7:15:00 PM 6.2287 3.9096
8/18/2022 7:30:00 PM 6.2158 3.8471
8/18/2022 7:45:00 PM 6.1993 3.8029
8/18/2022 8:00:00 PM 6.1819 3.7829
8/18/2022 8:15:00 PM 6.1683 3.9872
8/18/2022 8:30:00 PM 6.1453 3.9812
8/18/2022 8:45:00 PM 6.139 4.1
8/18/2022 9:00:00 PM 6.0973 4.1571
8/18/2022 9:15:00 PM 6.0815 4.2605
8/18/2022 9:30:00 PM 6.0724 4.2584
8/18/2022 9:45:00 PM 6.0654 4.3411
8/18/2022 10:00:00 PM 6.0678 4.2462
8/18/2022 10:15:00 PM 6.0713 4.1904
8/18/2022 10:30:00 PM 6.0554 4.2229
8/18/2022 10:45:00 PM 6.0497 4.3904
8/18/2022 11:00:00 PM 6.0693 4.5383
8/18/2022 11:15:00 PM 6.0651 4.4843
8/18/2022 11:30:00 PM 6.0645 4.4392
8/18/2022 11:45:00 PM 6.0606 4.5
8/19/2022 12:00:00 AM 6.0625 4.3454
8/19/2022 12:15:00 AM 6.0599 4.3856
8/19/2022 12:30:00 AM 6.0571 4.3376
8/19/2022 12:45:00 AM 6.0543 4.3692
8/19/2022 1:00:00 AM 6.0588 4.3544
8/19/2022 1:15:00 AM 6.0599 4.397
8/19/2022 1:30:00 AM 6.0517 4.3285
8/19/2022 1:45:00 AM 6.049 4.4006
8/19/2022 2:00:00 AM 6.0492 4.3502
8/19/2022 2:15:00 AM 6.0454 4.3587
8/19/2022 2:30:00 AM 6.04 4.3966
8/19/2022 2:45:00 AM 6.0396 4.4
8/19/2022 3:00:00 AM 6.0323 4.3379
8/19/2022 3:15:00 AM 6.0193 4.3803
8/19/2022 3:30:00 AM 6.0133 4.5696
8/19/2022 3:45:00 AM 6.008 4.2815
8/19/2022 4:00:00 AM 6.0013 4.2131
8/19/2022 4:15:00 AM 5.9971 4.1649
8/19/2022 4:30:00 AM 5.995 4.1322
8/19/2022 4:45:00 AM 5.9891 4.2647
8/19/2022 5:00:00 AM 5.9914 4.0379
8/19/2022 5:15:00 AM 5.9885 4.0659
8/19/2022 5:30:00 AM 5.9843 4.1356
8/19/2022 5:45:00 AM 5.978 4.1999
8/19/2022 6:00:00 AM 5.9789 4.1529
8/19/2022 6:15:00 AM 5.9742 4.0969
8/19/2022 6:30:00 AM 5.9775 3.9408
8/19/2022 6:45:00 AM 5.9835 3.971
8/19/2022 7:00:00 AM 5.9868 3.8304
8/19/2022 7:15:00 AM 5.991 3.8585
8/19/2022 7:30:00 AM 5.9966 3.7619
8/19/2022 7:45:00 AM 6.0116 3.7735
8/19/2022 8:00:00 AM 6.0219 3.6227
8/19/2022 8:15:00 AM 6.0421 8.4887
8/19/2022 8:30:00 AM 6.0661 3.6547
8/19/2022 8:45:00 AM 6.0718 3.6
8/19/2022 9:00:00 AM 6.1181 3.5203
8/19/2022 9:15:00 AM 6.14 3.6579
8/19/2022 9:30:00 AM 6.1631 3.5433
8/19/2022 9:45:00 AM 6.1874 3.6049
8/19/2022 10:00:00 AM 6.2033 3.5293
8/19/2022 10:15:00 AM 6.2202 3.5802
8/19/2022 10:30:00 AM 6.241 9.2045
8/19/2022 10:45:00 AM 6.2673 3.5536
8/19/2022 11:00:00 AM 6.2921 3.4243
8/19/2022 11:15:00 AM 6.3139 3.4869
8/19/2022 11:30:00 AM 6.3376 3.4372
8/19/2022 11:45:00 AM 6.342 3.5
8/19/2022 12:00:00 PM 6.3619 3.4673
8/19/2022 12:15:00 PM 6.3649 3.5467
8/19/2022 12:30:00 PM 6.3838 3.4655
8/19/2022 12:45:00 PM 6.4025 3.5452
8/19/2022 1:00:00 PM 6.4095 3.4375
8/19/2022 1:15:00 PM 6.4266 3.4625
8/19/2022 1:30:00 PM 6.4385 3.5024
8/19/2022 1:45:00 PM 6.444 3.5672
8/19/2022 2:00:00 PM 6.4507 3.5392
8/19/2022 2:15:00 PM 6.467 3.5837
8/19/2022 2:30:00 PM 6.4723 3.4349
8/19/2022 2:45:00 PM 6.4608 3.5442
8/19/2022 3:00:00 PM 6.4668 3.4518
8/19/2022 3:15:00 PM 6.4862 3.3561
8/19/2022 3:30:00 PM 6.4687 3.3324
8/19/2022 3:45:00 PM 6.4681 3.3756
8/19/2022 4:00:00 PM 6.4759 3.4444
8/19/2022 4:15:00 PM 6.4725 3.4456
8/19/2022 4:30:00 PM 6.4745 3.3386
8/19/2022 4:45:00 PM 6.4907 3.3547
8/19/2022 5:00:00 PM 6.4906 3.3393
8/19/2022 5:15:00 PM 6.4881 3.3641
8/19/2022 5:30:00 PM 6.488 3.341
8/19/2022 5:45:00 PM 6.4848 3.4
8/19/2022 6:00:00 PM 6.477 3.36
8/19/2022 6:15:00 PM 6.4664 3.3973
8/19/2022 6:30:00 PM 6.4592 3.4574
8/19/2022 6:45:00 PM 6.4558 3.4259
8/19/2022 7:00:00 PM 6.4546 3.4484
8/19/2022 7:15:00 PM 6.4389 3.4518
8/19/2022 7:30:00 PM 6.4202 3.4194
8/19/2022 7:45:00 PM 6.4008 3.4415
8/19/2022 8:00:00 PM 6.3788 3.3889
8/19/2022 8:15:00 PM 6.3568 3.4585
8/19/2022 8:30:00 PM 6.332 3.4966
8/19/2022 8:45:00 PM 6.3098 3.5
8/19/2022 9:00:00 PM 6.2671 3.6386
8/19/2022 9:15:00 PM 6.2515 3.6186
8/19/2022 9:30:00 PM 6.2422 3.53
8/19/2022 9:45:00 PM 6.2264 3.5526
8/19/2022 10:00:00 PM 6.2122 3.5345
8/19/2022 10:15:00 PM 6.2005 3.5505
8/19/2022 10:30:00 PM 6.197 3.5466
8/19/2022 10:45:00 PM 6.1857 3.7777
8/19/2022 11:00:00 PM 6.1733 3.7067
8/19/2022 11:15:00 PM 6.1681 3.7736
8/19/2022 11:30:00 PM 6.1699 3.7602
8/19/2022 11:45:00 PM 6.1628 3.8
8/20/2022 12:00:00 AM 6.1539 3.8262
8/20/2022 12:15:00 AM 6.1484 3.9212
8/20/2022 12:30:00 AM 6.1467 3.8835
8/20/2022 12:45:00 AM 6.1427 3.9343
8/20/2022 1:00:00 AM 6.1307 3.9315
8/20/2022 1:15:00 AM 6.12 3.9373
8/20/2022 1:30:00 AM 6.1138 3.936
8/20/2022 1:45:00 AM 6.1086 3.9785
8/20/2022 2:00:00 AM 6.102 3.9792
8/20/2022 2:15:00 AM 6.0855 4.0072
8/20/2022 2:30:00 AM 6.0721 3.9829
8/20/2022 2:45:00 AM 6.0704 4.1
8/20/2022 3:00:00 AM 6.0546 4.0773
8/20/2022 3:15:00 AM 6.0551 4.3902
8/20/2022 3:30:00 AM 6.0453 4.0156
8/20/2022 3:45:00 AM 6.0418 4.3455
8/20/2022 4:00:00 AM 6.0382 4.279
8/20/2022 4:15:00 AM 6.0333 4.5937
8/20/2022 4:30:00 AM 6.0127 4.6087
8/20/2022 4:45:00 AM 5.9976 4.8912
8/20/2022 5:00:00 AM 6.003 4.7854
8/20/2022 5:15:00 AM 6.0145 5.1531
8/20/2022 5:30:00 AM 6.0174 4.9716
8/20/2022 5:45:00 AM 6.0144 5
8/20/2022 6:00:00 AM 5.9965 4.9004
8/20/2022 6:15:00 AM 5.9979 5.1633
8/20/2022 6:30:00 AM 5.9936 4.5586
8/20/2022 6:45:00 AM 5.9969 4.8359
8/20/2022 7:00:00 AM 6.0058 4.4521
8/20/2022 7:15:00 AM 6.0139 5.0383
8/20/2022 7:30:00 AM 6.026 4.2662
8/20/2022 7:45:00 AM 6.0361 4.4963
8/20/2022 8:00:00 AM 6.0405 4.2304
8/20/2022 8:15:00 AM 6.0466 4.43
8/20/2022 8:30:00 AM 6.0598 4.2213
8/20/2022 8:45:00 AM 6.0676 4.3001
8/20/2022 9:00:00 AM 6.1147 4.1066
8/20/2022 9:15:00 AM 6.1425 4.4157
8/20/2022 9:30:00 AM 6.1736 4.0973
8/20/2022 9:45:00 AM 6.2069 4.2712
8/20/2022 10:00:00 AM 6.2317 4.1867
8/20/2022 10:15:00 AM 6.2552 4.2537
8/20/2022 10:30:00 AM 6.2815 3.9583
8/20/2022 10:45:00 AM 6.3022 4.2301
8/20/2022 11:00:00 AM 6.3182 4.1242
8/20/2022 11:15:00 AM 6.3287 4.3319
8/20/2022 11:30:00 AM 6.3161 4.1399
8/20/2022 11:45:00 AM 6.3098 4.3
8/20/2022 12:00:00 PM 6.3332 4.1216
8/20/2022 12:15:00 PM 6.336 4.2908
8/20/2022 12:30:00 PM 6.3325 4.2746
8/20/2022 12:45:00 PM 6.3481 4.465
8/20/2022 1:00:00 PM 6.3424 4.7792
8/20/2022 1:15:00 PM 6.3554 4.5957
8/20/2022 1:30:00 PM 6.3796 3.9519
8/20/2022 1:45:00 PM 6.3922 4.1507
8/20/2022 2:00:00 PM 6.4121 4.0624
8/20/2022 2:15:00 PM 6.4162 4.2712
8/20/2022 2:30:00 PM 6.4189 3.8747
8/20/2022 2:45:00 PM 6.4266 4.0788
8/20/2022 3:00:00 PM 6.4509 3.9486
8/20/2022 3:15:00 PM 6.4516 4.142
8/20/2022 3:30:00 PM 6.4477 3.8694
8/20/2022 3:45:00 PM 6.4515 4.0814
8/20/2022 4:00:00 PM 6.4759 4.0906
8/20/2022 4:15:00 PM 6.4676 4.2491
8/20/2022 4:30:00 PM 6.4281 3.8713
8/20/2022 4:45:00 PM 6.4006 4.0702
8/20/2022 5:00:00 PM 6.3964 4.0299
8/20/2022 5:15:00 PM 6.3959 4.1967
8/20/2022 5:30:00 PM 6.3902 3.9958
8/20/2022 5:45:00 PM 6.3854 4.1
8/20/2022 6:00:00 PM 6.3676 4.3066
8/20/2022 6:15:00 PM 6.3554 4.2698
8/20/2022 6:30:00 PM 6.3398 4.0889
8/20/2022 6:45:00 PM 6.3266 4.183
8/20/2022 7:00:00 PM 6.3184 4.007
8/20/2022 7:15:00 PM 6.3052 4.3338
8/20/2022 7:30:00 PM 6.2898 4.3546
8/20/2022 7:45:00 PM 6.2602 4.5358
8/20/2022 8:00:00 PM 6.2332 4.1124
8/20/2022 8:15:00 PM 6.2132 4.2821
8/20/2022 8:30:00 PM 6.1916 4.2344
8/20/2022 8:45:00 PM 6.181 4.3
8/20/2022 9:00:00 PM 6.1485 4.465
8/20/2022 9:15:00 PM 6.1328 4.8978
8/20/2022 9:30:00 PM 6.1175 5.819
8/20/2022 9:45:00 PM 6.1202 5.415
8/20/2022 10:00:00 PM 6.1099 4.5876
8/20/2022 10:15:00 PM 6.0939 4.4442
8/20/2022 10:30:00 PM 6.0939 4.3257
8/20/2022 10:45:00 PM 6.0856 3.824
8/20/2022 11:00:00 PM 6.0779 3.8424
8/20/2022 11:15:00 PM 6.0769 3.7147
8/20/2022 11:30:00 PM 6.076 3.4829
8/20/2022 11:45:00 PM 6.0718 3.4
8/21/2022 12:00:00 AM 6.0647 3.6782
8/21/2022 12:15:00 AM 6.0508 3.9562
8/21/2022 12:30:00 AM 6.038 4.0106
8/21/2022 12:45:00 AM 6.0324 4.0857
8/21/2022 1:00:00 AM 6.0225 4.054
8/21/2022 1:15:00 AM 6.0131 3.9586
8/21/2022 1:30:00 AM 6.0049 3.9159
8/21/2022 1:45:00 AM 5.9935 3.7205
8/21/2022 2:00:00 AM 5.982 3.9508
8/21/2022 2:15:00 AM 5.9777 3.827
8/21/2022 2:30:00 AM 5.9717 3.423
8/21/2022 2:45:00 AM 5.9682 3.4
8/21/2022 3:00:00 AM 5.9507 3.4157
8/21/2022 3:15:00 AM 5.945 3.4647
8/21/2022 3:30:00 AM 5.9334 4.1708
8/21/2022 3:45:00 AM 5.9276 4.6268
8/21/2022 4:00:00 AM 5.9179 4.2705
8/21/2022 4:15:00 AM 5.913 4.3971
8/21/2022 4:30:00 AM 5.9106 4.3032
8/21/2022 4:45:00 AM 5.9074 4.5135
8/21/2022 5:00:00 AM 5.9036 4.4793
8/21/2022 5:15:00 AM 5.8991 4.6597
8/21/2022 5:30:00 AM 5.8961 4.4803
8/21/2022 5:45:00 AM 5.8926 4.6
8/21/2022 6:00:00 AM 5.8898 4.4385
8/21/2022 6:15:00 AM 5.8909 4.5148
8/21/2022 6:30:00 AM 5.8891 4.3913
8/21/2022 6:45:00 AM 5.8904 4.6233
8/21/2022 7:00:00 AM 5.8989 4.5616
8/21/2022 7:15:00 AM 5.8994 4.7321
8/21/2022 7:30:00 AM 5.8965 4.7521
8/21/2022 7:45:00 AM 5.8954 4.4881
8/21/2022 8:00:00 AM 5.9222 4.3712
8/21/2022 8:15:00 AM 5.9346 4.1515
8/21/2022 8:30:00 AM 5.9476 3.5087
8/21/2022 8:45:00 AM 5.9612 3.4
8/21/2022 9:00:00 AM 5.987 3.6121
8/21/2022 9:15:00 AM 6.0146 3.5152
8/21/2022 9:30:00 AM 6.0411 3.2757
8/21/2022 9:45:00 AM 6.0644 20.7233
8/21/2022 10:00:00 AM 6.0792 3.6381
8/21/2022 10:15:00 AM 6.0872 3.6259
8/21/2022 10:30:00 AM 6.1007 3.543
8/21/2022 10:45:00 AM 6.1154 3.6116
8/21/2022 11:00:00 AM 6.1223 3.6494
8/21/2022 11:15:00 AM 6.1331 3.6705
8/21/2022 11:30:00 AM 6.1533 3.6172
8/21/2022 11:45:00 AM 6.1572 3.6
8/21/2022 12:00:00 PM 6.2147 3.6043
8/21/2022 12:15:00 PM 6.2518 3.5963
8/21/2022 12:30:00 PM 6.267 3.6355
8/21/2022 12:45:00 PM 6.2824 3.6163
8/21/2022 1:00:00 PM 6.2862 3.5502
8/21/2022 1:15:00 PM 6.3031 3.5549
8/21/2022 1:30:00 PM 6.3393 3.5401
8/21/2022 1:45:00 PM 6.3587 3.5483
8/21/2022 2:00:00 PM 6.3815 3.5585
8/21/2022 2:15:00 PM 6.3707 3.5485
8/21/2022 2:30:00 PM 6.3807 3.5347
8/21/2022 2:45:00 PM 6.3809 3.6203
8/21/2022 3:00:00 PM 6.3932 3.445
8/21/2022 3:15:00 PM 6.3817 3.453
8/21/2022 3:30:00 PM 6.3471 3.4341
8/21/2022 3:45:00 PM 6.3435 3.3795
8/21/2022 4:00:00 PM 6.332 3.4517
8/21/2022 4:15:00 PM 6.3202 3.4575
8/21/2022 4:30:00 PM 6.2986 3.5262
8/21/2022 4:45:00 PM 6.2813 3.6195
8/21/2022 5:00:00 PM 6.275 3.532
8/21/2022 5:15:00 PM 6.2884 3.4523
8/21/2022 5:30:00 PM 6.2837 3.452
8/21/2022 5:45:00 PM 6.279 3.5
8/21/2022 6:00:00 PM 6.2546 3.4038
8/21/2022 6:15:00 PM 6.236 3.45
8/21/2022 6:30:00 PM 6.2254 3.429
8/21/2022 6:45:00 PM 6.2289 3.452
8/21/2022 7:00:00 PM 6.2303 3.4073
8/21/2022 7:15:00 PM 6.2249 3.3627
8/21/2022 7:30:00 PM 6.2153 3.3271
8/21/2022 7:45:00 PM 6.2048 3.3355
8/21/2022 8:00:00 PM 6.1858 3.345
8/21/2022 8:15:00 PM 6.1598 3.411
8/21/2022 8:30:00 PM 6.1309 3.4369
8/21/2022 8:45:00 PM 6.118 3.5
8/21/2022 9:00:00 PM 6.0912 3.5327
8/21/2022 9:15:00 PM 6.0764 3.5538
8/21/2022 9:30:00 PM 6.0599 3.5426
8/21/2022 9:45:00 PM 6.0525 3.5545
8/21/2022 10:00:00 PM 6.0465 3.5469
8/21/2022 10:15:00 PM 6.0382 3.5494
8/21/2022 10:30:00 PM 6.0381 3.5519
8/21/2022 10:45:00 PM 6.0379 3.5531
8/21/2022 11:00:00 PM 6.0343 3.5182
8/21/2022 11:15:00 PM 6.0259 3.5036
8/21/2022 11:30:00 PM 6.0234 3.5046
8/21/2022 11:45:00 PM 6.02 3.5
8/22/2022 12:00:00 AM 6.0123 3.6185
8/22/2022 12:15:00 AM 6.0025 3.5638
8/22/2022 12:30:00 AM 5.9914 3.6811
8/22/2022 12:45:00 AM 5.9845 4.1573
8/22/2022 1:00:00 AM 5.9778 4.0271
8/22/2022 1:15:00 AM 5.972 3.7843
8/22/2022 1:30:00 AM 5.9704 3.701
8/22/2022 1:45:00 AM 5.9629 3.7122
8/22/2022 2:00:00 AM 5.957 3.7379
8/22/2022 2:15:00 AM 5.9535 3.7527
8/22/2022 2:30:00 AM 5.953 3.7016
8/22/2022 2:45:00 AM 5.9556 3.8
8/22/2022 3:00:00 AM 5.9425 3.6643
8/22/2022 3:15:00 AM 5.9403 3.8896
8/22/2022 3:30:00 AM 5.9361 3.6592
8/22/2022 3:45:00 AM 5.9266 3.7294
8/22/2022 4:00:00 AM 5.9187 3.7137
8/22/2022 4:15:00 AM 5.9176 3.7482
8/22/2022 4:30:00 AM 5.9155 3.9364
8/22/2022 4:45:00 AM 5.9082 3.8881
8/22/2022 5:00:00 AM 5.8996 4.0657
8/22/2022 5:15:00 AM 5.8928 3.9343
8/22/2022 5:30:00 AM 5.8916 4.0519
8/22/2022 5:45:00 AM 5.8898 4.3
8/22/2022 6:00:00 AM 5.8825 3.9388
8/22/2022 6:15:00 AM 5.8812 3.8378
8/22/2022 6:30:00 AM 5.8839 3.727
8/22/2022 6:45:00 AM 5.891 3.7381
8/22/2022 7:00:00 AM 5.8996 3.7001
8/22/2022 7:15:00 AM 5.9006 3.6449
8/22/2022 7:30:00 AM 5.9062 3.6512
8/22/2022 7:45:00 AM 5.9074 3.6629
8/22/2022 8:00:00 AM 5.9134 3.6484
8/22/2022 8:15:00 AM 5.9125 3.943
8/22/2022 8:30:00 AM 5.9192 4.0107
8/22/2022 8:45:00 AM 5.9262 3.8
8/22/2022 9:00:00 AM 5.9231 3.9289
8/22/2022 9:15:00 AM 5.9418 3.7969
8/22/2022 9:30:00 AM 5.9637 3.731
8/22/2022 9:45:00 AM 5.9883 3.65
8/22/2022 10:00:00 AM 6.0116 3.6333
8/22/2022 10:15:00 AM 6.0309 3.6447
8/22/2022 10:30:00 AM 6.0449 3.6257
8/22/2022 10:45:00 AM 6.0727 3.6203
8/22/2022 11:00:00 AM 6.0983 3.5627
8/22/2022 11:15:00 AM 6.118 3.5444
8/22/2022 11:30:00 AM 6.1295 3.4875
8/22/2022 11:45:00 AM 6.1348 3.5
8/22/2022 12:00:00 PM 6.2002 3.5489
8/22/2022 12:15:00 PM 6.2021 3.4583
8/22/2022 12:30:00 PM 6.1707 3.4254
8/22/2022 12:45:00 PM 6.164 3.3678
8/22/2022 1:00:00 PM 6.185 3.4302
8/22/2022 1:15:00 PM 6.2203 3.3515
8/22/2022 1:30:00 PM 6.2447 3.5392
8/22/2022 1:45:00 PM 6.2756 3.4468
8/22/2022 2:00:00 PM 6.2569 3.4384
8/22/2022 2:15:00 PM 6.2236 3.4542
8/22/2022 2:30:00 PM 6.1992 3.465
8/22/2022 2:45:00 PM 6.1791 3.4493
8/22/2022 3:00:00 PM 6.1646 3.4517
8/22/2022 3:15:00 PM 6.1709 3.4368
8/22/2022 3:30:00 PM 6.1912 3.4022
8/22/2022 3:45:00 PM 6.2159 3.3362
8/22/2022 4:00:00 PM 6.251 3.3388
8/22/2022 4:15:00 PM 6.2717 3.3379
8/22/2022 4:30:00 PM 6.2701 3.3264
8/22/2022 4:45:00 PM 6.2723 3.3399
8/22/2022 5:00:00 PM 6.2653 3.3337
8/22/2022 5:15:00 PM 6.2451 3.3489
8/22/2022 5:30:00 PM 6.2415 3.3481
8/22/2022 5:45:00 PM 6.2454 3.3
8/22/2022 6:00:00 PM 6.2466 3.2347
8/22/2022 6:15:00 PM 6.2416 3.2301
8/22/2022 6:30:00 PM 6.2299 3.2926
8/22/2022 6:45:00 PM 6.2182 3.2441
8/22/2022 7:00:00 PM 6.1934 3.2338
8/22/2022 7:15:00 PM 6.1747 3.226
8/22/2022 7:30:00 PM 6.1527 3.2267
8/22/2022 7:45:00 PM 6.1361 3.4316
8/22/2022 8:00:00 PM 6.1231 3.3245
8/22/2022 8:15:00 PM 6.1062 3.3511
8/22/2022 8:30:00 PM 6.0849 3.3286
8/22/2022 8:45:00 PM 6.076 3.4
8/22/2022 9:00:00 PM 6.03 3.4297
8/22/2022 9:15:00 PM 6.014 3.4581
8/22/2022 9:30:00 PM 6.0055 3.4525
8/22/2022 9:45:00 PM 5.9906 3.4727
8/22/2022 10:00:00 PM 5.9916 3.4393
8/22/2022 10:15:00 PM 5.9925 3.438
8/22/2022 10:30:00 PM 5.988 3.3915
8/22/2022 10:45:00 PM 5.9816 3.3744
8/22/2022 11:00:00 PM 5.9781 3.3316
8/22/2022 11:15:00 PM 5.9723 3.4587
8/22/2022 11:30:00 PM 5.9648 3.4328
8/22/2022 11:45:00 PM 5.9598 3.4
8/23/2022 12:00:00 AM 5.9528 3.4273
8/23/2022 12:15:00 AM 5.9469 3.4444
8/23/2022 12:30:00 AM 5.9388 3.4371
8/23/2022 12:45:00 AM 5.9348 3.4566
8/23/2022 1:00:00 AM 5.9291 3.5018
8/23/2022 1:15:00 AM 5.9262 3.4823
8/23/2022 1:30:00 AM 5.9182 3.5513
8/23/2022 1:45:00 AM 5.9093 3.5531
8/23/2022 2:00:00 AM 5.9067 3.5543
8/23/2022 2:15:00 AM 5.9005 3.5896
8/23/2022 2:30:00 AM 5.8991 3.576
8/23/2022 2:45:00 AM 5.9024 3.7
8/23/2022 3:00:00 AM 5.893 4.6493
8/23/2022 3:15:00 AM 5.8864 3.5898
8/23/2022 3:30:00 AM 5.8795 3.5494
8/23/2022 3:45:00 AM 5.8741 3.5368
8/23/2022 4:00:00 AM 5.872 3.5453
8/23/2022 4:15:00 AM 5.872 3.5615
8/23/2022 4:30:00 AM 5.8679 3.5305
8/23/2022 4:45:00 AM 5.8655 3.5657
8/23/2022 5:00:00 AM 5.8611 3.5649
8/23/2022 5:15:00 AM 5.8581 3.5529
8/23/2022 5:30:00 AM 5.8578 3.5187
8/23/2022 5:45:00 AM 5.8548 3.5
8/23/2022 6:00:00 AM 5.8427 3.5164
8/23/2022 6:15:00 AM 5.8419 3.4605
8/23/2022 6:30:00 AM 5.8402 3.4448
8/23/2022 6:45:00 AM 5.8371 3.4014
8/23/2022 7:00:00 AM 5.8387 3.4368
8/23/2022 7:15:00 AM 5.8416 3.489
8/23/2022 7:30:00 AM 5.8484 3.3731
8/23/2022 7:45:00 AM 5.8529 3.3394
8/23/2022 8:00:00 AM 5.8568 3.3347
8/23/2022 8:15:00 AM 5.8644 3.3071
8/23/2022 8:30:00 AM 5.8635 4.8876
8/23/2022 8:45:00 AM 5.8758 3.4
8/23/2022 9:00:00 AM 5.904 3.2444
8/23/2022 9:15:00 AM 5.9173 3.216
8/23/2022 9:30:00 AM 5.9401 3.2425
8/23/2022 9:45:00 AM 5.9649 3.222
8/23/2022 10:00:00 AM 5.9884 3.1882
8/23/2022 10:15:00 AM 6.0178 3.1698
8/23/2022 10:30:00 AM 6.0429 3.2072
8/23/2022 10:45:00 AM 6.0743 3.1816
8/23/2022 11:00:00 AM 6.1056 3.1389
8/23/2022 11:15:00 AM 6.1321 3.1334
8/23/2022 11:30:00 AM 6.1473 3.1372
8/23/2022 11:45:00 AM 6.153 3.1
8/23/2022 12:00:00 PM 6.147 3.1768
8/23/2022 12:15:00 PM 6.1722 3.1346
8/23/2022 12:30:00 PM 6.2386 3.1253
8/23/2022 12:45:00 PM 6.2569 3.1137
8/23/2022 1:00:00 PM 6.2717 3.0589
8/23/2022 1:15:00 PM 6.2812 3.0459
8/23/2022 1:30:00 PM 6.2832 3.0605
8/23/2022 1:45:00 PM 6.2933 3.0341
8/23/2022 2:00:00 PM 6.2994 3.0254
8/23/2022 2:15:00 PM 6.2774 3.0442
8/23/2022 2:30:00 PM 6.2607 3.0312
8/23/2022 2:45:00 PM 6.277 3.052
8/23/2022 3:00:00 PM 6.3264 3.0223
8/23/2022 3:15:00 PM 6.3654 2.9629
8/23/2022 3:30:00 PM 6.3519 3.0429
8/23/2022 3:45:00 PM 6.3012 3.0201
8/23/2022 4:00:00 PM 6.2938 3.0413
8/23/2022 4:15:00 PM 6.318 3.0397
8/23/2022 4:30:00 PM 6.3284 3.0442
8/23/2022 4:45:00 PM 6.3009 3.0326
8/23/2022 5:00:00 PM 6.2861 3.0215
8/23/2022 5:15:00 PM 6.2961 3.0483
8/23/2022 5:30:00 PM 6.2998 3.0409
8/23/2022 5:45:00 PM 6.3084 3
8/23/2022 6:00:00 PM 6.3083 3.0529
8/23/2022 6:15:00 PM 6.3059 3.0501
8/23/2022 6:30:00 PM 6.2998 3.0415
8/23/2022 6:45:00 PM 6.3002 3.0637
8/23/2022 7:00:00 PM 6.2958 3.0904
8/23/2022 7:15:00 PM 6.2815 3.1052
8/23/2022 7:30:00 PM 6.2607 3.1203
8/23/2022 7:45:00 PM 6.2354 3.1042
8/23/2022 8:00:00 PM 6.2147 3.1175
8/23/2022 8:15:00 PM 6.1885 3.1384
8/23/2022 8:30:00 PM 6.1574 3.1412
8/23/2022 8:45:00 PM 6.139 3.2
8/23/2022 9:00:00 PM 6.1067 3.1403
8/23/2022 9:15:00 PM 6.091 3.141
8/23/2022 9:30:00 PM 6.0744 3.1327
8/23/2022 9:45:00 PM 6.0666 3.1414
8/23/2022 10:00:00 PM 6.0648 3.1572
8/23/2022 10:15:00 PM 6.063 3.2
8/23/2022 10:30:00 PM 6.059 3.2376
8/23/2022 10:45:00 PM 6.0594 3.1934
8/23/2022 11:00:00 PM 6.0583 3.1301
8/23/2022 11:15:00 PM 6.0592 3.2207
8/23/2022 11:30:00 PM 6.0554 3.2553
8/23/2022 11:45:00 PM 6.0536 3.3
8/24/2022 12:00:00 AM 6.0525 3.2471
8/24/2022 12:15:00 AM 6.047 3.2558
8/24/2022 12:30:00 AM 6.0456 3.2366
8/24/2022 12:45:00 AM 6.043 3.2637
8/24/2022 1:00:00 AM 6.0376 3.3613
8/24/2022 1:15:00 AM 6.0284 3.376
8/24/2022 1:30:00 AM 6.0164 3.335
8/24/2022 1:45:00 AM 6.0137 3.3656
8/24/2022 2:00:00 AM 6.0095 3.3451
8/24/2022 2:15:00 AM 6.004 3.3435
8/24/2022 2:30:00 AM 5.996 3.4308
8/24/2022 2:45:00 AM 5.9948 3.3
8/24/2022 3:00:00 AM 5.9829 3.4508
8/24/2022 3:15:00 AM 5.9809 3.3571
8/24/2022 3:30:00 AM 5.9796 3.3342
8/24/2022 3:45:00 AM 5.9723 3.5043
8/24/2022 4:00:00 AM 5.9597 3.5994
8/24/2022 4:15:00 AM 5.958 3.3399
8/24/2022 4:30:00 AM 5.9522 3.3475
8/24/2022 4:45:00 AM 5.9454 3.3353
8/24/2022 5:00:00 AM 5.9457 3.4575
8/24/2022 5:15:00 AM 5.9467 3.4523
8/24/2022 5:30:00 AM 5.9444 3.4749
8/24/2022 5:45:00 AM 5.943 3.5
8/24/2022 6:00:00 AM 5.9391 3.3371
8/24/2022 6:15:00 AM 5.9428 3.294
8/24/2022 6:30:00 AM 5.9408 3.3012
8/24/2022 6:45:00 AM 5.9452 3.2328
8/24/2022 7:00:00 AM 5.9497 3.2373
8/24/2022 7:15:00 AM 5.9575 3.1822
8/24/2022 7:30:00 AM 5.9667 3.1241
8/24/2022 7:45:00 AM 5.9761 3.1274
8/24/2022 8:00:00 AM 5.9877 3.1252
8/24/2022 8:15:00 AM 6.0047 3.1998
8/24/2022 8:30:00 AM 6.021 3.1853
8/24/2022 8:45:00 AM 6.0312 3.2
8/24/2022 9:00:00 AM 6.0716 3.1396
8/24/2022 9:15:00 AM 6.1046 3.1748
8/24/2022 9:30:00 AM 6.1382 3.1424
8/24/2022 9:45:00 AM 6.1636 3.0528
8/24/2022 10:00:00 AM 6.1879 3.0597
8/24/2022 10:15:00 AM 6.2156 3.1412
8/24/2022 10:30:00 AM 6.243 3.1371
8/24/2022 10:45:00 AM 6.262 3.0955
8/24/2022 11:00:00 AM 6.2844 3.071
8/24/2022 11:15:00 AM 6.3154 3.1426
8/24/2022 11:30:00 AM 6.3374 3.1528
8/24/2022 11:45:00 AM 6.3546 3.1
8/24/2022 12:00:00 PM 6.3937 3.0241
8/24/2022 12:15:00 PM 6.4252 2.9561
8/24/2022 12:30:00 PM 6.4084 2.9493
8/24/2022 12:45:00 PM 6.4015 2.9257
8/24/2022 1:00:00 PM 6.4278 2.9199
8/24/2022 1:15:00 PM 6.4434 2.9241
8/24/2022 1:30:00 PM 6.4724 2.9333
8/24/2022 1:45:00 PM 6.482 2.9551
8/24/2022 2:00:00 PM 6.4875 2.9574
8/24/2022 2:15:00 PM 6.52 2.9497
8/24/2022 2:30:00 PM 6.5421 2.952
8/24/2022 2:45:00 PM 6.5373 2.9623
8/24/2022 3:00:00 PM 6.5346 2.9556
8/24/2022 3:15:00 PM 6.5474 2.9514
8/24/2022 3:30:00 PM 6.5617 2.9524
8/24/2022 3:45:00 PM 6.5728 2.9292
8/24/2022 4:00:00 PM 6.5813 2.9468
8/24/2022 4:15:00 PM 6.5839 2.9455
8/24/2022 4:30:00 PM 6.5805 2.955
8/24/2022 4:45:00 PM 6.5781 2.9646
8/24/2022 5:00:00 PM 6.5766 2.936
8/24/2022 5:15:00 PM 6.5843 2.9253
8/24/2022 5:30:00 PM 6.5878 2.9531
8/24/2022 5:45:00 PM 6.5828 2.9
8/24/2022 6:00:00 PM 6.572 2.9208
8/24/2022 6:15:00 PM 6.5649 3.0007
8/24/2022 6:30:00 PM 6.5576 2.933
8/24/2022 6:45:00 PM 6.5534 2.9296
8/24/2022 7:00:00 PM 6.5402 2.9554
8/24/2022 7:15:00 PM 6.5222 2.9419
8/24/2022 7:30:00 PM 6.5124 2.878
8/24/2022 7:45:00 PM 6.4962 2.8711
8/24/2022 8:00:00 PM 6.4698 2.8864
8/24/2022 8:15:00 PM 6.4362 2.9546
8/24/2022 8:30:00 PM 6.3988 3.0044
8/24/2022 8:45:00 PM 6.3854 3
8/24/2022 9:00:00 PM 6.3386 3.0403
8/24/2022 9:15:00 PM 6.3139 3.0334
8/24/2022 9:30:00 PM 6.2997 3.0347
8/24/2022 9:45:00 PM 6.2929 3.0271
8/24/2022 10:00:00 PM 6.2838 3.0288
8/24/2022 10:15:00 PM 6.2735 3.0388
8/24/2022 10:30:00 PM 6.2697 3.0622
8/24/2022 10:45:00 PM 6.2059 3.4973
8/24/2022 11:00:00 PM 6.2554 3.2781
8/24/2022 11:15:00 PM 6.2477 3.3421
8/24/2022 11:30:00 PM 6.2391 3.2478
8/24/2022 11:45:00 PM 6.2314 3.2
8/25/2022 12:00:00 AM 6.2306 3.2251
8/25/2022 12:15:00 AM 6.2203 3.3079
8/25/2022 12:30:00 AM 6.2083 3.2439
8/25/2022 12:45:00 AM 6.2024 3.2627
8/25/2022 1:00:00 AM 6.1961 3.2216
8/25/2022 1:15:00 AM 6.1896 3.2046
8/25/2022 1:30:00 AM 6.1828 3.4581
8/25/2022 1:45:00 AM 6.1751 3.449
8/25/2022 2:00:00 AM 6.1672 3.3027
8/25/2022 2:15:00 AM 6.1646 3.249
8/25/2022 2:30:00 AM 6.157 3.3567
8/25/2022 2:45:00 AM 6.1474 3.3
8/25/2022 3:00:00 AM 6.1339 3.88
8/25/2022 3:15:00 AM 6.1355 3.3931
8/25/2022 3:30:00 AM 6.1282 3.3438
8/25/2022 3:45:00 AM 6.1203 3.2537
8/25/2022 4:00:00 AM 6.1162 3.2184
8/25/2022 4:15:00 AM 6.1103 3.1997
8/25/2022 4:30:00 AM 6.1073 3.1867
8/25/2022 4:45:00 AM 6.1061 3.326
8/25/2022 5:00:00 AM 6.1038 3.1479
8/25/2022 5:15:00 AM 6.1028 3.1382
8/25/2022 5:30:00 AM 6.1027 3.2392
8/25/2022 5:45:00 AM 6.0998 3.3
8/25/2022 6:00:00 AM 6.0685 3.3933
8/25/2022 6:15:00 AM 6.0816 3.1553
8/25/2022 6:30:00 AM 6.08 3.1122
8/25/2022 6:45:00 AM 6.0767 3.1518
8/25/2022 7:00:00 AM 6.0779 3.0078
8/25/2022 7:15:00 AM 6.0769 2.9273
8/25/2022 7:30:00 AM 6.0873 2.9529
8/25/2022 7:45:00 AM 6.1025 3.1091
8/25/2022 8:00:00 AM 6.1103 2.8819
8/25/2022 8:15:00 AM 6.1283 2.8878
8/25/2022 8:30:00 AM 6.1509 2.8487
8/25/2022 8:45:00 AM 6.1628 2.9
8/25/2022 9:00:00 AM 6.1932 2.9427
8/25/2022 9:15:00 AM 6.2261 2.8247
8/25/2022 9:30:00 AM 6.2681 2.8397
8/25/2022 9:45:00 AM 6.3028 2.8387
8/25/2022 10:00:00 AM 6.3264 3.7569
8/25/2022 10:15:00 AM 6.3635 2.9041
8/25/2022 10:30:00 AM 6.3942 2.857
8/25/2022 10:45:00 AM 6.4139 2.8332
8/25/2022 11:00:00 AM 6.4302 2.881
8/25/2022 11:15:00 AM 6.4405 2.8281
8/25/2022 11:30:00 AM 6.457 2.8547
8/25/2022 11:45:00 AM 6.468 2.8
8/25/2022 12:00:00 PM 6.4951 2.811
8/25/2022 12:15:00 PM 6.5168 2.8452
8/25/2022 12:30:00 PM 6.5183 2.8308
8/25/2022 12:45:00 PM 6.5191 2.8055
8/25/2022 1:00:00 PM 6.5361 2.7588
8/25/2022 1:15:00 PM 6.5426 2.7441
8/25/2022 1:30:00 PM 6.552 2.7423
8/25/2022 1:45:00 PM 6.5691 2.7479
8/25/2022 2:00:00 PM 6.5812 2.7247
8/25/2022 2:15:00 PM 6.5751 2.6294
8/25/2022 2:30:00 PM 6.5793 2.6214
8/25/2022 2:45:00 PM 6.6094 2.6486
8/25/2022 3:00:00 PM 6.6651 2.6512
8/25/2022 3:15:00 PM 6.641 2.6335
8/25/2022 3:30:00 PM 6.6238 2.6513
8/25/2022 3:45:00 PM 6.6169 2.6552
8/25/2022 4:00:00 PM 6.6254 2.6523
8/25/2022 4:15:00 PM 6.6444 2.6598
8/25/2022 4:30:00 PM 6.653 2.6307
8/25/2022 4:45:00 PM 6.6597 2.6514
8/25/2022 5:00:00 PM 6.6601 2.6633
8/25/2022 5:15:00 PM 6.6495 2.6321
8/25/2022 5:30:00 PM 6.6505 2.6454
8/25/2022 5:45:00 PM 6.657 2.6
8/25/2022 6:00:00 PM 6.6447 2.6358
8/25/2022 6:15:00 PM 6.6311 2.5836
8/25/2022 6:30:00 PM 6.6159 2.6103
8/25/2022 6:45:00 PM 6.5955 2.6563
8/25/2022 7:00:00 PM 6.5831 2.6497
8/25/2022 7:15:00 PM 6.5607 2.638
8/25/2022 7:30:00 PM 6.5408 2.6537
8/25/2022 7:45:00 PM 6.5208 2.646
8/25/2022 8:00:00 PM 6.4989 2.6332
8/25/2022 8:15:00 PM 6.4746 2.6483
8/25/2022 8:30:00 PM 6.4484 2.6492
8/25/2022 8:45:00 PM 6.4386 2.7
8/25/2022 9:00:00 PM 6.4061 2.7434
8/25/2022 9:15:00 PM 6.3831 2.7334
8/25/2022 9:30:00 PM 6.3553 2.7351
8/25/2022 9:45:00 PM 6.3419 2.7361
8/25/2022 10:00:00 PM 6.3389 2.7485
8/25/2022 10:15:00 PM 6.3342 2.7416
8/25/2022 10:30:00 PM 6.3213 2.7334
8/25/2022 10:45:00 PM 6.2783 2.9554
8/25/2022 11:00:00 PM 6.2905 2.9532
8/25/2022 11:15:00 PM 6.2742 2.943
8/25/2022 11:30:00 PM 6.2613 2.9258
8/25/2022 11:45:00 PM 6.251 3.1
8/26/2022 12:00:00 AM 6.2252 3.0538
8/26/2022 12:15:00 AM 6.2072 2.933
8/26/2022 12:30:00 AM 6.1895 2.9781
8/26/2022 12:45:00 AM 6.1723 3.148
8/26/2022 1:00:00 AM 6.1592 3.2284
8/26/2022 1:15:00 AM 6.1507 3.1045
8/26/2022 1:30:00 AM 6.1387 3.1481
8/26/2022 1:45:00 AM 6.1244 3.2042
8/26/2022 2:00:00 AM 6.1091 3.1041
8/26/2022 2:15:00 AM 6.0943 3.224
8/26/2022 2:30:00 AM 6.0907 3.0414
8/26/2022 2:45:00 AM 6.09 3
8/26/2022 3:00:00 AM 6.0757 3.4926
8/26/2022 3:15:00 AM 6.0718 3.5106
8/26/2022 3:30:00 AM 6.0654 3.1674
8/26/2022 3:45:00 AM 6.061 3.0335
8/26/2022 4:00:00 AM 6.0468 3.0364
8/26/2022 4:15:00 AM 6.0396 3.0548
8/26/2022 4:30:00 AM 6.0336 3.1298
8/26/2022 4:45:00 AM 6.0237 3.0788
8/26/2022 5:00:00 AM 6.0217 3.13
8/26/2022 5:15:00 AM 6.0198 3.1933
8/26/2022 5:30:00 AM 6.024 3.1757
8/26/2022 5:45:00 AM 6.0284 3.1
8/26/2022 6:00:00 AM 6.0169 3.1175
8/26/2022 6:15:00 AM 6.0156 3.1384
8/26/2022 6:30:00 AM 6.0173 3.1062
8/26/2022 6:45:00 AM 6.0133 3.02
8/26/2022 7:00:00 AM 6.0125 3.038
8/26/2022 7:15:00 AM 6.0175 3.0094
8/26/2022 7:30:00 AM 6.0197 3.0149
8/26/2022 7:45:00 AM 6.0144 2.934
8/26/2022 8:00:00 AM 6.0236 3.017
8/26/2022 8:15:00 AM 6.0571 2.9065
8/26/2022 8:30:00 AM 6.0846 2.8679
8/26/2022 8:45:00 AM 6.0914 2.9
8/26/2022 9:00:00 AM 6.1253 2.8317
8/26/2022 9:15:00 A